M I D A S
Marine Information and Data Acquisition System
Tripno 1780 of the Zeeleeuw from 2009-09-18 06:49:10 to 2009-09-18 15:24:44
Back to CruiseResearch ActivitiesStationsMapUnderway DataData graphs

EquipmentUnitsComment
TimeDGPSUTC
LatitudeDGPSDM.mWGS84
LongitudeDGPSDM.mWGS84
TemperatureSBE03/SBE38deg celciusITS90
ConductivitySBE21S/mITS90
SalinitySBE21 Practical Salinity Units
ChlorophylAChelsea fluorimeterg/lCalibrated in Aceton
Missing or incorrect values are displayed as -999
Sea surface data collected by the RV Zeeleeuw from 2009-09-18 06:34:36 to 2009-09-18 15:24:44
                                                                                    Next 1000 lines
Time Latitude Longitude Temperature Conductivity Salinity ChlorophylA
2009-09-18 06:34:46 51°13.663 2°55.958 19.8763 0.028521 0.158981 46.882506
2009-09-18 06:34:50 51°13.662 2°55.958 19.8727 0.028521 0.158981 46.882506
2009-09-18 06:34:55 51°13.662 2°55.958 19.8708 0.028521 0.158984 46.882506
2009-09-18 06:35:00 51°13.662 2°55.958 19.8674 0.028521 0.15899 46.882506
2009-09-18 06:35:05 51°13.662 2°55.958 19.8666 0.028521 0.158992 46.882506
2009-09-18 06:35:10 51°13.663 2°55.958 19.8676 0.028521 0.158995 46.882506
2009-09-18 06:35:15 51°13.663 2°55.958 19.8828 0.028521 0.158998 46.882506
2009-09-18 06:35:20 51°13.663 2°55.958 19.8817 0.028521 0.158998 46.882506
2009-09-18 06:35:25 51°13.663 2°55.959 19.8792 0.028521 0.159001 46.847682
2009-09-18 06:35:29 51°13.663 2°55.958 19.8792 0.028521 0.159004 46.847682
2009-09-18 06:35:34 51°13.663 2°55.958 19.8756 0.028521 0.159006 46.847682
2009-09-18 06:35:39 51°13.663 2°55.958 19.8684 0.028521 0.159012 46.847682
2009-09-18 06:35:44 51°13.663 2°55.958 19.8664 0.028521 0.159015 46.847682
2009-09-18 06:35:49 51°13.663 2°55.958 19.8672 0.028521 0.159015 46.847682
2009-09-18 06:35:54 51°13.663 2°55.958 19.8712 0.028521 0.159017 46.847682
2009-09-18 06:35:57 51°13.663 2°55.958 19.8688 0.028521 0.159023 46.847682
2009-09-18 06:36:02 51°13.662 2°55.959 19.8732 0.028521 0.159026 46.847682
2009-09-18 06:36:08 51°13.662 2°55.959 19.8723 0.028521 0.159029 46.847682
2009-09-18 06:36:13 51°13.662 2°55.959 19.8818 0.028521 0.159031 46.812858
2009-09-18 06:36:18 51°13.663 2°55.959 19.8828 0.028521 0.159031 46.812858
2009-09-18 06:36:23 51°13.663 2°55.959 19.8814 0.028521 0.159037 46.812858
2009-09-18 06:36:28 51°13.663 2°55.959 19.8824 0.028521 0.15904 46.812858
2009-09-18 06:36:33 51°13.663 2°55.959 19.8816 0.028521 0.159043 46.812858
2009-09-18 06:36:38 51°13.663 2°55.959 19.8831 0.028521 0.159045 46.812858
2009-09-18 06:36:43 51°13.662 2°55.959 19.8816 0.028521 0.159048 46.812858
2009-09-18 06:36:48 51°13.662 2°55.959 19.8826 0.028521 0.159048 46.812858
2009-09-18 06:36:53 51°13.662 2°55.959 19.8816 0.028521 0.159051 46.812858
2009-09-18 06:36:58 51°13.663 2°55.959 19.8812 0.028521 0.159056 46.812858
2009-09-18 06:37:03 51°13.662 2°55.959 19.8788 0.028521 0.159059 46.812858
2009-09-18 06:37:08 51°13.662 2°55.959 19.8772 0.028521 0.159062 46.812858
2009-09-18 06:37:13 51°13.662 2°55.959 19.8801 0.028521 0.159065 46.778034
2009-09-18 06:37:18 51°13.663 2°55.959 19.8815 0.028521 0.159065 46.778034
2009-09-18 06:37:22 51°13.663 2°55.959 19.881 0.028521 0.159068 46.778034
2009-09-18 06:37:28 51°13.662 2°55.959 19.8829 0.028521 0.15907 46.778034
2009-09-18 06:37:33 51°13.663 2°55.959 19.885 0.028521 0.159076 46.778034
2009-09-18 06:37:38 51°13.663 2°55.959 19.8818 0.028521 0.159079 46.778034
2009-09-18 06:37:43 51°13.663 2°55.959 19.8745 0.028521 0.159082 46.778034
2009-09-18 06:37:47 51°13.663 2°55.959 19.875 0.028521 0.159082 46.778034
2009-09-18 06:37:53 51°13.662 2°55.959 19.8789 0.028521 0.159087 46.743209
2009-09-18 06:37:58 51°13.663 2°55.959 19.878 0.028521 0.15909 46.743209
2009-09-18 06:38:03 51°13.663 2°55.959 19.8834 0.028521 0.159096 46.743209
2009-09-18 06:38:07 51°13.663 2°55.959 19.8816 0.028521 0.159096 46.743209
2009-09-18 06:38:13 51°13.663 2°55.959 19.8762 0.028521 0.159098 46.743209
2009-09-18 06:38:18 51°13.663 2°55.959 19.873 0.028521 0.159104 46.743209
2009-09-18 06:38:22 51°13.663 2°55.959 19.8714 0.028521 0.159104 46.743209
2009-09-18 06:38:28 51°13.663 2°55.959 19.8672 0.028521 0.159109 46.743209
2009-09-18 06:38:33 51°13.663 2°55.959 19.8766 0.028521 0.159112 46.743209
2009-09-18 06:38:38 51°13.663 2°55.959 19.8871 0.028521 0.159115 46.743209
2009-09-18 06:38:43 51°13.663 2°55.959 19.8857 0.028521 0.159121 46.743209
2009-09-18 06:38:47 51°13.663 2°55.959 19.8895 0.028521 0.159121 46.743209
2009-09-18 06:38:53 51°13.662 2°55.959 19.8852 0.028521 0.159123 46.743209
2009-09-18 06:38:57 51°13.663 2°55.959 19.8837 0.028521 0.159126 46.708385
2009-09-18 06:39:03 51°13.663 2°55.959 19.8839 0.028521 0.159129 46.708385
2009-09-18 06:39:08 51°13.663 2°55.959 19.886 0.028521 0.159132 46.708385
2009-09-18 06:39:13 51°13.663 2°55.959 19.8904 0.028521 0.159135 46.708385
2009-09-18 06:39:18 51°13.663 2°55.959 19.8864 0.028521 0.159135 46.708385
2009-09-18 06:39:23 51°13.663 2°55.959 19.8831 0.028521 0.15914 46.708385
2009-09-18 06:39:28 51°13.663 2°55.959 19.8855 0.028521 0.159143 46.708385
2009-09-18 06:39:33 51°13.663 2°55.959 19.8829 0.028418 0.158568 46.708385
2009-09-18 06:39:38 51°13.663 2°55.959 19.885 0.028418 0.158571 46.673561
2009-09-18 06:39:42 51°13.663 2°55.959 19.8833 0.028521 0.159151 46.708385
2009-09-18 06:39:47 51°13.663 2°55.959 19.8837 0.028521 0.159151 46.708385
2009-09-18 06:39:53 51°13.663 2°55.959 19.8839 0.028418 0.158579 46.708385
2009-09-18 06:39:58 51°13.663 2°55.959 19.8826 0.028521 0.15916 46.708385
2009-09-18 06:40:02 51°13.663 2°55.959 19.8849 0.028418 0.158584 46.673561
2009-09-18 06:40:07 51°13.663 2°55.959 19.8887 0.028418 0.158587 46.673561
2009-09-18 06:40:13 51°13.663 2°55.959 19.8925 0.028418 0.158593 46.673561
2009-09-18 06:40:18 51°13.663 2°55.959 19.8932 0.028418 0.158593 46.673561
2009-09-18 06:40:23 51°13.663 2°55.959 19.8935 0.028418 0.158596 46.673561
2009-09-18 06:40:28 51°13.663 2°55.959 19.8929 0.028418 0.158598 46.673561
2009-09-18 06:40:33 51°13.663 2°55.959 19.8915 0.028418 0.158604 46.673561
2009-09-18 06:40:38 51°13.663 2°55.959 19.8921 0.028418 0.158604 46.673561
2009-09-18 06:40:42 51°13.663 2°55.959 19.8918 0.028418 0.158607 46.673561
2009-09-18 06:40:48 51°13.663 2°55.959 19.8881 0.028418 0.158607 46.673561
2009-09-18 06:40:53 51°13.663 2°55.959 19.8935 0.028418 0.158612 46.673561
2009-09-18 06:40:58 51°13.663 2°55.959 19.8956 0.028418 0.158615 46.673561
2009-09-18 06:41:03 51°13.663 2°55.959 19.9015 0.028418 0.158618 46.638737
2009-09-18 06:41:08 51°13.663 2°55.959 19.899 0.028418 0.158621 46.638737
2009-09-18 06:41:13 51°13.663 2°55.959 19.8996 0.028418 0.158623 46.638737
2009-09-18 06:41:18 51°13.663 2°55.959 19.8999 0.028418 0.158623 46.638737
2009-09-18 06:41:23 51°13.663 2°55.959 19.8924 0.028418 0.158629 46.638737
2009-09-18 06:41:28 51°13.663 2°55.959 19.8925 0.028418 0.158629 46.638737
2009-09-18 06:41:33 51°13.663 2°55.959 19.9002 0.028418 0.158635 46.638737
2009-09-18 06:41:37 51°13.663 2°55.959 19.9011 0.028418 0.158637 46.638737
2009-09-18 06:41:43 51°13.663 2°55.959 19.9006 0.028418 0.15864 46.638737
2009-09-18 06:41:48 51°13.663 2°55.959 19.8946 0.028418 0.158643 46.603913
2009-09-18 06:41:53 51°13.663 2°55.959 19.888 0.028418 0.158643 46.603913
2009-09-18 06:41:58 51°13.663 2°55.959 19.8992 0.028418 0.158646 46.638737
2009-09-18 06:42:02 51°13.663 2°55.959 19.8949 0.028418 0.158648 46.603913
2009-09-18 06:42:07 51°13.662 2°55.959 19.8953 0.028418 0.158651 46.603913
2009-09-18 06:42:13 51°13.662 2°55.96 19.8911 0.028418 0.158654 46.603913
2009-09-18 06:42:18 51°13.662 2°55.96 19.894 0.028418 0.158654 46.603913
2009-09-18 06:42:22 51°13.662 2°55.96 19.9005 0.028418 0.158657 46.603913
2009-09-18 06:42:27 51°13.662 2°55.96 19.9006 0.028418 0.15866 46.603913
2009-09-18 06:42:33 51°13.662 2°55.96 19.9007 0.028418 0.158665 46.603913
2009-09-18 06:42:38 51°13.662 2°55.96 19.9091 0.028418 0.158668 46.603913
2009-09-18 06:42:43 51°13.662 2°55.96 19.9083 0.028418 0.158671 46.569089
2009-09-18 06:42:48 51°13.662 2°55.96 19.9069 0.028418 0.158671 46.569089
2009-09-18 06:42:53 51°13.662 2°55.96 19.9065 0.028418 0.158671 46.569089
2009-09-18 06:42:58 51°13.662 2°55.96 19.907 0.028418 0.158676 46.569089
2009-09-18 06:43:02 51°13.661 2°55.96 19.9083 0.028418 0.158676 46.569089
2009-09-18 06:43:08 51°13.661 2°55.961 19.8986 0.028418 0.158682 46.569089
2009-09-18 06:43:13 51°13.661 2°55.96 19.9052 0.028418 0.158682 46.569089
2009-09-18 06:43:18 51°13.661 2°55.96 19.9056 0.028418 0.158685 46.569089
2009-09-18 06:43:22 51°13.661 2°55.96 19.9058 0.028418 0.158685 46.569089
2009-09-18 06:43:27 51°13.661 2°55.96 19.898 0.028418 0.158685 46.569089
2009-09-18 06:43:33 51°13.661 2°55.96 19.8988 0.028418 0.15869 46.569089
2009-09-18 06:43:38 51°13.661 2°55.96 19.9098 0.028418 0.158693 46.569089
2009-09-18 06:43:42 51°13.661 2°55.96 19.9108 0.028418 0.158696 46.534265
2009-09-18 06:43:48 51°13.661 2°55.96 19.9163 0.028418 0.158696 46.534265
2009-09-18 06:43:53 51°13.66 2°55.96 19.9142 0.028418 0.158696 46.534265
2009-09-18 06:43:58 51°13.66 2°55.96 19.9052 0.028418 0.158701 46.534265
2009-09-18 06:44:02 51°13.66 2°55.96 19.8897 0.028418 0.158707 46.534265
2009-09-18 06:44:08 51°13.66 2°55.96 19.8922 0.028418 0.158713 46.534265
2009-09-18 06:44:13 51°13.66 2°55.959 19.8932 0.028418 0.158715 46.534265
2009-09-18 06:44:18 51°13.661 2°55.958 19.8013 0.028418 0.158715 46.534265
2009-09-18 06:44:23 51°13.661 2°55.956 19.8535 0.028418 0.158724 46.534265
2009-09-18 06:44:27 51°13.662 2°55.955 19.8627 0.028418 0.158724 46.534265
2009-09-18 06:44:33 51°13.663 2°55.951 19.8777 0.028418 0.158726 46.534265
2009-09-18 06:44:38 51°13.664 2°55.948 19.8627 0.028418 0.158729 46.534265
2009-09-18 06:44:44 51°13.665 2°55.944 19.8615 0.028418 0.158735 46.534265
2009-09-18 06:44:49 51°13.666 2°55.94 19.8615 0.028418 0.158735 46.534265
2009-09-18 06:44:55 51°13.668 2°55.934 19.8724 0.028418 0.158738 46.534265
2009-09-18 06:45:01 51°13.67 2°55.928 19.8636 0.028418 0.15874 46.499441
2009-09-18 06:45:06 51°13.671 2°55.923 19.8714 0.028418 0.158746 46.499441
2009-09-18 06:45:11 51°13.672 2°55.917 19.8757 0.028418 0.158749 46.499441
2009-09-18 06:45:16 51°13.673 2°55.911 19.8681 0.028418 0.158752 46.499441
2009-09-18 06:45:21 51°13.675 2°55.904 19.873 0.028418 0.158754 46.499441
2009-09-18 06:45:26 51°13.676 2°55.897 19.8779 0.028418 0.158754 46.499441
2009-09-18 06:45:31 51°13.677 2°55.89 19.8834 0.028418 0.158757 46.499441
2009-09-18 06:45:36 51°13.678 2°55.883 19.8939 0.028418 0.158757 46.464617
2009-09-18 06:45:41 51°13.68 2°55.875 19.8929 0.028418 0.15876 46.464617
2009-09-18 06:45:46 51°13.681 2°55.868 19.8942 0.028418 0.158763 46.464617
2009-09-18 06:45:51 51°13.683 2°55.86 19.9001 0.028418 0.158763 46.464617
2009-09-18 06:45:56 51°13.684 2°55.852 19.8945 0.028418 0.158763 46.464617
2009-09-18 06:46:01 51°13.686 2°55.844 19.8995 0.028418 0.158768 46.464617
2009-09-18 06:46:06 51°13.687 2°55.836 19.8967 0.028418 0.158768 46.464617
2009-09-18 06:46:11 51°13.688 2°55.828 19.9076 0.028418 0.158771 46.464617
2009-09-18 06:46:16 51°13.69 2°55.82 19.912 0.028418 0.158774 46.464617
2009-09-18 06:46:21 51°13.691 2°55.812 19.9144 0.028418 0.158774 46.464617
2009-09-18 06:46:26 51°13.692 2°55.805 19.9105 0.028418 0.158777 46.464617
2009-09-18 06:46:31 51°13.693 2°55.797 19.9144 0.028418 0.158777 46.429793
2009-09-18 06:46:35 51°13.694 2°55.791 19.9143 0.028418 0.158779 46.464617
2009-09-18 06:46:41 51°13.695 2°55.783 19.9097 0.028418 0.158782 46.429793
2009-09-18 06:46:46 51°13.696 2°55.776 19.9114 0.028418 0.158782 46.429793
2009-09-18 06:46:51 51°13.696 2°55.769 19.9155 0.028418 0.158782 46.429793
2009-09-18 06:46:56 51°13.697 2°55.763 19.9119 0.028418 0.158782 46.429793
2009-09-18 06:47:01 51°13.697 2°55.757 19.9179 0.028418 0.158782 46.429793
2009-09-18 06:47:06 51°13.697 2°55.752 19.921 0.028418 0.158777 46.429793
2009-09-18 06:47:11 51°13.698 2°55.749 19.9439 0.028418 0.158774 46.429793
2009-09-18 06:47:16 51°13.698 2°55.747 19.9497 0.028418 0.158766 46.429793
2009-09-18 06:47:21 51°13.698 2°55.746 19.9344 0.028418 0.15876 46.394969
2009-09-18 06:47:26 51°13.698 2°55.746 19.9292 0.028418 0.15876 46.394969
2009-09-18 06:47:30 51°13.699 2°55.746 19.9236 0.028418 0.158763 46.394969
2009-09-18 06:47:35 51°13.7 2°55.747 19.9264 0.028418 0.15876 46.394969
2009-09-18 06:47:40 51°13.7 2°55.748 19.9066 0.028418 0.158766 46.394969
2009-09-18 06:47:45 51°13.701 2°55.749 19.8865 0.028418 0.158774 46.394969
2009-09-18 06:47:49 51°13.702 2°55.75 19.8719 0.028418 0.158774 46.394969
2009-09-18 06:47:54 51°13.703 2°55.751 19.8335 0.028418 0.158782 46.394969
2009-09-18 06:47:58 51°13.703 2°55.751 19.8528 0.028418 0.158791 46.394969
2009-09-18 06:48:04 51°13.703 2°55.751 19.8785 0.028418 0.158793 46.394969
2009-09-18 06:48:09 51°13.703 2°55.75 19.8249 0.028418 0.158799 46.394969
2009-09-18 06:48:13 51°13.703 2°55.749 19.8387 0.028418 0.158802 46.394969
2009-09-18 06:48:18 51°13.702 2°55.748 19.8645 0.028418 0.158802 46.394969
2009-09-18 06:48:22 51°13.701 2°55.747 19.8764 0.028418 0.158807 46.394969
2009-09-18 06:48:27 51°13.7 2°55.745 19.8902 0.028418 0.158807 46.394969
2009-09-18 06:48:33 51°13.697 2°55.743 19.9056 0.028418 0.15881 46.360145
2009-09-18 06:48:38 51°13.696 2°55.741 19.9027 0.028418 0.158807 46.394969
2009-09-18 06:48:43 51°13.694 2°55.74 19.9161 0.028418 0.158807 46.394969
2009-09-18 06:48:49 51°13.692 2°55.738 19.936 0.028418 0.158807 46.394969
2009-09-18 06:48:55 51°13.691 2°55.737 19.944 0.028418 0.158793 46.360145
2009-09-18 06:49:00 51°13.692 2°55.736 19.9499 0.028418 0.158779 46.360145
2009-09-18 06:49:06 51°13.693 2°55.735 19.9472 0.028418 0.158766 46.360145
2009-09-18 06:49:11 51°13.695 2°55.735 19.9469 0.028418 0.158746 46.360145
2009-09-18 06:49:16 51°13.698 2°55.734 19.9451 0.028418 0.15874 46.360145
2009-09-18 06:49:21 51°13.701 2°55.732 19.9413 0.028418 0.15874 46.360145
2009-09-18 06:49:26 51°13.705 2°55.729 19.9385 0.028418 0.15874 46.325321
2009-09-18 06:49:30 51°13.708 2°55.727 19.9298 0.028418 0.158746 46.360145
2009-09-18 06:49:36 51°13.713 2°55.722 19.9017 0.028418 0.158749 46.325321
2009-09-18 06:49:40 51°13.718 2°55.719 19.8808 0.028418 0.158763 46.325321
2009-09-18 06:49:45 51°13.723 2°55.714 19.86 0.028418 0.158771 46.325321
2009-09-18 06:49:50 51°13.729 2°55.709 19.853 0.028418 0.158771 46.325321
2009-09-18 06:49:54 51°13.734 2°55.705 19.8633 0.028418 0.158779 46.325321
2009-09-18 06:49:59 51°13.741 2°55.699 19.8614 0.028418 0.158788 46.325321
2009-09-18 06:50:04 51°13.749 2°55.693 19.8448 0.028418 0.158799 46.325321
2009-09-18 06:50:09 51°13.756 2°55.688 19.8425 0.028418 0.158805 46.325321
2009-09-18 06:50:14 51°13.764 2°55.681 19.8468 0.028418 0.158813 46.325321
2009-09-18 06:50:18 51°13.771 2°55.677 19.8615 0.028418 0.158819 46.325321
2009-09-18 06:50:23 51°13.779 2°55.67 19.862 0.028418 0.158819 46.325321
2009-09-18 06:50:29 51°13.789 2°55.662 19.8625 0.028418 0.158824 46.325321
2009-09-18 06:50:33 51°13.796 2°55.657 19.8666 0.028418 0.15883 46.325321
2009-09-18 06:50:38 51°13.805 2°55.65 19.8586 0.028418 0.158835 46.290497
2009-09-18 06:50:42 51°13.812 2°55.645 19.852 0.028418 0.158838 46.290497
2009-09-18 06:50:47 51°13.821 2°55.638 19.886 0.028418 0.158841 46.290497
2009-09-18 06:50:53 51°13.832 2°55.63 19.8596 0.028418 0.158841 46.290497
2009-09-18 06:50:57 51°13.84 2°55.624 19.8705 0.028418 0.158846 46.290497
2009-09-18 06:51:02 51°13.85 2°55.617 19.881 0.028418 0.158849 46.290497
2009-09-18 06:51:08 51°13.861 2°55.609 19.8629 0.028418 0.158855 46.290497
2009-09-18 06:51:13 51°13.871 2°55.602 19.8709 0.028418 0.15886 46.255673
2009-09-18 06:51:17 51°13.878 2°55.596 19.8694 0.028418 0.15886 46.255673
2009-09-18 06:51:22 51°13.888 2°55.588 19.8726 0.028418 0.15886 46.290497
2009-09-18 06:51:27 51°13.898 2°55.581 19.8692 0.028418 0.158866 46.290497
2009-09-18 06:51:33 51°13.911 2°55.572 19.8869 0.028418 0.158872 46.290497
2009-09-18 06:51:38 51°13.921 2°55.564 19.8915 0.028418 0.158872 46.255673
2009-09-18 06:51:42 51°13.929 2°55.559 19.9018 0.028418 0.158874 46.255673
2009-09-18 06:51:48 51°13.942 2°55.549 19.8784 0.028418 0.158874 46.255673
2009-09-18 06:51:52 51°13.95 2°55.543 19.8835 0.028418 0.15888 46.255673
2009-09-18 06:51:58 51°13.963 2°55.534 19.8886 0.028418 0.158883 46.255673
2009-09-18 06:52:02 51°13.971 2°55.527 19.8871 0.028418 0.158886 46.255673
2009-09-18 06:52:08 51°13.984 2°55.518 19.8884 0.028418 0.158891 46.255673
2009-09-18 06:52:13 51°13.995 2°55.51 19.8888 0.028418 0.158894 46.255673
2009-09-18 06:52:18 51°14.005 2°55.502 19.9105 0.028418 0.158894 46.255673
2009-09-18 06:52:22 51°14.014 2°55.496 19.8925 0.028418 0.158894 46.255673
2009-09-18 06:52:27 51°14.024 2°55.488 19.8838 0.028418 0.158902 46.255673
2009-09-18 06:52:33 51°14.037 2°55.478 19.8922 0.028418 0.158905 46.255673
2009-09-18 06:52:37 51°14.045 2°55.471 19.8922 0.028418 0.158908 46.220849
2009-09-18 06:52:42 51°14.056 2°55.463 19.8911 0.028418 0.158908 46.220849
2009-09-18 06:52:48 51°14.068 2°55.453 19.8715 0.028418 0.158908 46.220849
2009-09-18 06:52:53 51°14.079 2°55.445 19.8932 0.028418 0.158914 46.220849
2009-09-18 06:52:57 51°14.087 2°55.438 19.8952 0.028418 0.158919 46.220849
2009-09-18 06:53:02 51°14.097 2°55.43 19.9211 0.028418 0.158919 46.220849
2009-09-18 06:53:08 51°14.109 2°55.42 19.8939 0.028418 0.158919 46.220849
2009-09-18 06:53:13 51°14.12 2°55.411 19.8925 0.028418 0.15893 46.220849
2009-09-18 06:53:17 51°14.128 2°55.404 19.8925 0.028418 0.15893 46.220849
2009-09-18 06:53:22 51°14.138 2°55.395 19.9335 0.028418 0.15893 46.220849
2009-09-18 06:53:27 51°14.148 2°55.386 19.9015 0.028418 0.158922 46.220849
2009-09-18 06:53:33 51°14.16 2°55.375 19.9228 0.028418 0.158919 46.186025
2009-09-18 06:53:38 51°14.17 2°55.365 19.9101 0.028418 0.158914 46.186025
2009-09-18 06:53:42 51°14.178 2°55.357 19.9106 0.028418 0.158911 46.220849
2009-09-18 06:53:48 51°14.189 2°55.345 19.8891 0.028418 0.158911 46.220849
2009-09-18 06:53:53 51°14.199 2°55.334 19.902 0.028418 0.158916 46.186025
2009-09-18 06:53:58 51°14.208 2°55.321 19.9295 0.028418 0.158919 46.151201
2009-09-18 06:54:02 51°14.215 2°55.311 19.9158 0.028418 0.158905 46.186025
2009-09-18 06:54:08 51°14.226 2°55.296 19.8907 0.028418 0.158911 46.186025
2009-09-18 06:54:13 51°14.235 2°55.282 19.9055 0.028418 0.158911 46.186025
2009-09-18 06:54:18 51°14.244 2°55.268 19.908 0.028418 0.158914 46.151201
2009-09-18 06:54:22 51°14.251 2°55.257 19.8773 0.028418 0.158914 46.151201
2009-09-18 06:54:27 51°14.26 2°55.242 19.8157 0.028418 0.158925 46.151201
2009-09-18 06:54:33 51°14.27 2°55.223 19.9015 0.028418 0.158927 46.151201
2009-09-18 06:54:37 51°14.277 2°55.211 19.9092 0.028418 0.158894 46.186025
2009-09-18 06:54:42 51°14.286 2°55.194 19.8326 0.028418 0.158902 46.151201
2009-09-18 06:54:47 51°14.294 2°55.177 19.854 0.028418 0.158902 46.151201
2009-09-18 06:54:53 51°14.304 2°55.156 19.8813 0.028418 0.158894 46.186025
2009-09-18 06:54:57 51°14.311 2°55.142 19.8693 0.028418 0.158894 46.151201
2009-09-18 06:55:02 51°14.319 2°55.124 19.8502 0.028418 0.158914 46.116376
2009-09-18 06:55:08 51°14.328 2°55.102 19.872 0.028418 0.158922 46.151201
2009-09-18 06:55:13 51°14.336 2°55.083 19.8949 0.028418 0.158919 46.151201
2009-09-18 06:55:17 51°14.342 2°55.068 19.8958 0.028418 0.158919 46.151201
2009-09-18 06:55:22 51°14.349 2°55.048 19.8382 0.028418 0.158914 46.116376
2009-09-18 06:55:27 51°14.355 2°55.028 19.7852 0.028418 0.158916 46.151201
2009-09-18 06:55:33 51°14.364 2°55.005 19.8268 0.028418 0.158922 46.116376
2009-09-18 06:55:37 51°14.37 2°54.989 19.8515 0.028418 0.15893 46.151201
2009-09-18 06:55:42 51°14.378 2°54.971 19.8214 0.028418 0.158919 46.151201
2009-09-18 06:55:48 51°14.388 2°54.948 19.8506 0.028418 0.158911 46.151201
2009-09-18 06:55:53 51°14.398 2°54.929 19.8323 0.028418 0.158911 46.151201
2009-09-18 06:55:57 51°14.405 2°54.914 19.8212 0.028418 0.158911 46.151201
2009-09-18 06:56:02 51°14.415 2°54.896 19.8006 0.028418 0.158941 46.151201
2009-09-18 06:56:07 51°14.424 2°54.877 19.8538 0.028418 0.158914 46.151201
2009-09-18 06:56:13 51°14.436 2°54.855 19.8648 0.028418 0.158872 46.116376
2009-09-18 06:56:17 51°14.445 2°54.841 19.7391 0.028418 0.158872 46.116376
2009-09-18 06:56:22 51°14.454 2°54.822 19.7404 0.028418 0.158961 46.186025
2009-09-18 06:56:27 51°14.465 2°54.805 19.8041 0.028418 0.159028 46.151201
2009-09-18 06:56:32 51°14.476 2°54.788 19.8123 0.028418 0.159073 46.151201
2009-09-18 06:56:38 51°14.49 2°54.77 19.8265 0.028418 0.159056 46.186025
2009-09-18 06:56:42 51°14.5 2°54.758 19.8396 0.028418 0.159121 46.186025
2009-09-18 06:56:47 51°14.511 2°54.743 19.8545 0.028418 0.159121 46.186025
2009-09-18 06:56:53 51°14.526 2°54.725 19.8509 0.028418 0.159152 46.151201
2009-09-18 06:56:58 51°14.537 2°54.708 19.8235 0.028418 0.159225 46.151201
2009-09-18 06:57:02 51°14.546 2°54.694 19.8172 0.028418 0.159267 46.151201
2009-09-18 06:57:08 51°14.559 2°54.672 19.838 0.028418 0.159284 46.151201
2009-09-18 06:57:13 51°14.569 2°54.653 19.8412 0.028418 0.159343 46.151201
2009-09-18 06:57:17 51°14.577 2°54.638 19.8524 0.028418 0.159343 46.151201
2009-09-18 06:57:23 51°14.588 2°54.614 19.8282 0.028418 0.159438 46.116376
2009-09-18 06:57:28 51°14.598 2°54.593 19.7969 0.028418 0.159478 46.116376
2009-09-18 06:57:33 51°14.607 2°54.572 19.8022 0.028418 0.159515 46.116376
2009-09-18 06:57:38 51°14.616 2°54.551 19.827 0.028418 0.159498 46.081552
2009-09-18 06:57:43 51°14.624 2°54.529 19.7867 0.028418 0.159529 46.081552
2009-09-18 06:57:48 51°14.633 2°54.507 19.8116 0.028418 0.159628 46.081552
2009-09-18 06:57:54 51°14.643 2°54.481 19.8247 0.028418 0.159628 46.081552
2009-09-18 06:57:58 51°14.65 2°54.464 19.8209 0.028418 0.159758 46.081552
2009-09-18 06:58:03 51°14.659 2°54.443 19.8123 0.028418 0.1598 46.081552
2009-09-18 06:58:08 51°14.667 2°54.421 19.83 0.028418 0.159823 46.116376
2009-09-18 06:58:13 51°14.676 2°54.399 19.8011 0.028418 0.15992 46.046728
2009-09-18 06:58:18 51°14.684 2°54.377 19.7892 0.028418 0.15992 46.046728
2009-09-18 06:58:23 51°14.692 2°54.355 19.8201 0.028418 0.159925 46.081552
2009-09-18 06:58:28 51°14.7 2°54.333 19.8065 0.028418 0.159948 46.081552
2009-09-18 06:58:33 51°14.709 2°54.311 19.8258 0.028418 0.159937 46.046728
2009-09-18 06:58:38 51°14.717 2°54.289 19.7971 0.028418 0.159922 46.116376
2009-09-18 06:58:43 51°14.724 2°54.266 19.8075 0.028418 0.159894 46.046728
2009-09-18 06:58:48 51°14.733 2°54.244 19.8348 0.028418 0.159894 46.046728
2009-09-18 06:58:53 51°14.741 2°54.222 19.8128 0.028418 0.159897 46.046728
2009-09-18 06:58:58 51°14.749 2°54.2 19.7715 0.028418 0.159903 46.046728
2009-09-18 06:59:03 51°14.757 2°54.178 19.7961 0.028418 0.159905 46.011904
2009-09-18 06:59:07 51°14.763 2°54.161 19.8126 0.028418 0.159931 46.081552
2009-09-18 06:59:12 51°14.771 2°54.138 19.7974 0.028418 0.159957 46.046728
2009-09-18 06:59:17 51°14.779 2°54.117 19.8207 0.028418 0.159957 46.046728
2009-09-18 06:59:23 51°14.789 2°54.09 19.7904 0.028418 0.159968 46.011904
2009-09-18 06:59:27 51°14.795 2°54.072 19.82 0.028418 0.160016 46.046728
2009-09-18 06:59:33 51°14.805 2°54.046 19.8022 0.028418 0.160045 46.046728
2009-09-18 06:59:38 51°14.812 2°54.024 19.8073 0.028418 0.160067 46.011904
2009-09-18 06:59:43 51°14.82 2°54.001 19.7999 0.028418 0.160067 45.97708
2009-09-18 06:59:47 51°14.826 2°53.983 19.7963 0.028418 0.160067 45.97708
2009-09-18 06:59:52 51°14.834 2°53.961 19.7842 0.028418 0.160048 46.011904
2009-09-18 06:59:58 51°14.843 2°53.934 19.8036 0.028418 0.160096 46.011904
2009-09-18 07:00:03 51°14.851 2°53.911 19.8093 0.028418 0.160122 45.942256
2009-09-18 07:00:08 51°14.859 2°53.889 19.7807 0.028418 0.160133 45.97708
2009-09-18 07:00:13 51°14.866 2°53.866 19.7778 0.028418 0.160164 45.942256
2009-09-18 07:00:18 51°14.874 2°53.844 19.7982 0.028418 0.160164 45.942256
2009-09-18 07:00:23 51°14.882 2°53.823 19.8103 0.028418 0.160147 45.97708
2009-09-18 07:00:28 51°14.891 2°53.801 19.7886 0.028418 0.160184 45.942256
2009-09-18 07:00:33 51°14.899 2°53.779 19.8073 0.028418 0.160204 45.942256
2009-09-18 07:00:38 51°14.907 2°53.758 19.822 0.028418 0.160216 45.942256
2009-09-18 07:00:43 51°14.916 2°53.736 19.7845 0.028418 0.160233 45.942256
2009-09-18 07:00:48 51°14.924 2°53.715 19.813 0.028418 0.160233 45.942256
2009-09-18 07:00:53 51°14.932 2°53.693 19.8078 0.028418 0.160244 45.942256
2009-09-18 07:00:58 51°14.94 2°53.671 19.7976 0.028418 0.160201 45.942256
2009-09-18 07:01:03 51°14.948 2°53.649 19.824 0.028418 0.160227 45.942256
2009-09-18 07:01:08 51°14.956 2°53.628 19.7728 0.028418 0.160264 45.872608
2009-09-18 07:01:13 51°14.964 2°53.606 19.7924 0.028418 0.160296 45.942256
2009-09-18 07:01:18 51°14.972 2°53.584 19.8148 0.028418 0.160316 45.97708
2009-09-18 07:01:23 51°14.98 2°53.563 19.7998 0.028418 0.160316 45.97708
2009-09-18 07:01:28 51°14.988 2°53.541 19.8152 0.028418 0.160313 45.837784
2009-09-18 07:01:33 51°14.997 2°53.52 19.8127 0.028418 0.160313 45.907432
2009-09-18 07:01:38 51°15.004 2°53.498 19.7873 0.028418 0.160336 45.907432
2009-09-18 07:01:43 51°15.012 2°53.476 19.768 0.028418 0.160361 45.872608
2009-09-18 07:01:48 51°15.021 2°53.455 19.812 0.028418 0.160361 45.872608
2009-09-18 07:01:53 51°15.029 2°53.433 19.807 0.028418 0.160401 45.837784
2009-09-18 07:01:58 51°15.036 2°53.411 19.7582 0.028418 0.160373 45.907432
2009-09-18 07:02:03 51°15.044 2°53.388 19.7818 0.028418 0.160381 45.872608
2009-09-18 07:02:08 51°15.052 2°53.366 19.7986 0.028418 0.160361 45.837784
2009-09-18 07:02:13 51°15.059 2°53.344 19.7778 0.028418 0.160376 45.872608
2009-09-18 07:02:18 51°15.067 2°53.322 19.8117 0.028418 0.160376 45.872608
2009-09-18 07:02:23 51°15.075 2°53.3 19.8041 0.028418 0.160401 45.872608
2009-09-18 07:02:28 51°15.083 2°53.277 19.8058 0.028418 0.160439 45.80296
2009-09-18 07:02:33 51°15.09 2°53.255 19.813 0.028418 0.160439 45.837784
2009-09-18 07:02:38 51°15.098 2°53.233 19.7962 0.028418 0.160476 45.80296
2009-09-18 07:02:43 51°15.106 2°53.211 19.8056 0.028418 0.160467 45.837784
2009-09-18 07:02:48 51°15.114 2°53.188 19.8085 0.028418 0.160467 45.837784
2009-09-18 07:02:53 51°15.122 2°53.166 19.8056 0.028418 0.16049 45.80296
2009-09-18 07:02:58 51°15.129 2°53.145 19.8065 0.028418 0.160522 45.80296
2009-09-18 07:03:03 51°15.137 2°53.123 19.7929 0.028418 0.160548 45.768136
2009-09-18 07:03:08 51°15.145 2°53.1 19.7931 0.028418 0.160539 45.768136
2009-09-18 07:03:13 51°15.153 2°53.078 19.7959 0.028418 0.160559 45.80296
2009-09-18 07:03:18 51°15.161 2°53.056 19.8036 0.028418 0.160568 45.80296
2009-09-18 07:03:23 51°15.168 2°53.033 19.7999 0.028418 0.160568 45.80296
2009-09-18 07:03:28 51°15.176 2°53.01 19.7908 0.028418 0.160559 45.80296
2009-09-18 07:03:33 51°15.184 2°52.988 19.7916 0.028418 0.160542 45.733312
2009-09-18 07:03:38 51°15.192 2°52.966 19.8083 0.028418 0.160548 45.733312
2009-09-18 07:03:43 51°15.199 2°52.943 19.784 0.028418 0.160533 45.80296
2009-09-18 07:03:48 51°15.207 2°52.921 19.8203 0.028418 0.160533 45.80296
2009-09-18 07:03:53 51°15.215 2°52.899 19.7981 0.028418 0.160542 45.698488
2009-09-18 07:03:58 51°15.223 2°52.877 19.7756 0.028418 0.160562 45.768136
2009-09-18 07:04:03 51°15.231 2°52.854 19.8081 0.028418 0.160565 45.733312
2009-09-18 07:04:08 51°15.239 2°52.833 19.7981 0.028418 0.160545 45.733312
2009-09-18 07:04:13 51°15.247 2°52.811 19.7747 0.028624 0.16174 45.698488
2009-09-18 07:04:18 51°15.255 2°52.789 19.8083 0.028624 0.16174 45.698488
2009-09-18 07:04:23 51°15.263 2°52.767 19.8073 0.028624 0.16176 45.733312
2009-09-18 07:04:28 51°15.272 2°52.745 19.8062 0.028521 0.161214 45.733312
2009-09-18 07:04:33 51°15.28 2°52.723 19.8017 0.028521 0.161214 45.698488
2009-09-18 07:04:38 51°15.287 2°52.7 19.7886 0.028521 0.161217 45.698488
2009-09-18 07:04:43 51°15.295 2°52.679 19.7854 0.028521 0.161209 45.663664
2009-09-18 07:04:48 51°15.303 2°52.656 19.8026 0.028521 0.161232 45.698488
2009-09-18 07:04:53 51°15.311 2°52.634 19.8061 0.028521 0.161232 45.698488
2009-09-18 07:04:58 51°15.32 2°52.612 19.7929 0.028521 0.161243 45.663664
2009-09-18 07:05:03 51°15.328 2°52.59 19.8071 0.028521 0.161246 45.663664
2009-09-18 07:05:08 51°15.336 2°52.568 19.7961 0.028521 0.16122 45.663664
2009-09-18 07:05:13 51°15.344 2°52.546 19.8096 0.028521 0.161232 45.663664
2009-09-18 07:05:18 51°15.352 2°52.524 19.8134 0.028521 0.161232 45.663664
2009-09-18 07:05:23 51°15.36 2°52.502 19.8221 0.028521 0.161243 45.62884
2009-09-18 07:05:28 51°15.368 2°52.479 19.7916 0.028521 0.161255 45.62884
2009-09-18 07:05:33 51°15.376 2°52.457 19.7823 0.028624 0.16185 45.663664
2009-09-18 07:05:38 51°15.384 2°52.434 19.7847 0.028624 0.161859 45.663664
2009-09-18 07:05:43 51°15.392 2°52.412 19.7898 0.028624 0.16185 45.594016
2009-09-18 07:05:48 51°15.399 2°52.389 19.8076 0.028624 0.16185 45.594016
2009-09-18 07:05:53 51°15.407 2°52.367 19.7815 0.028624 0.161876 45.62884
2009-09-18 07:05:58 51°15.415 2°52.345 19.8068 0.028624 0.161879 45.663664
2009-09-18 07:06:03 51°15.423 2°52.323 19.8045 0.028521 0.161295 45.594016
2009-09-18 07:06:08 51°15.43 2°52.3 19.8188 0.028521 0.161301 45.62884
2009-09-18 07:06:13 51°15.439 2°52.278 19.8076 0.028521 0.161301 45.62884
2009-09-18 07:06:18 51°15.447 2°52.256 19.8133 0.028521 0.161301 45.62884
2009-09-18 07:06:23 51°15.455 2°52.233 19.8195 0.028521 0.16131 45.62884
2009-09-18 07:06:28 51°15.462 2°52.209 19.8149 0.028521 0.161301 45.594016
2009-09-18 07:06:33 51°15.47 2°52.187 19.7822 0.028521 0.161301 45.62884
2009-09-18 07:06:38 51°15.477 2°52.163 19.8148 0.028521 0.161295 45.594016
2009-09-18 07:06:43 51°15.485 2°52.14 19.8137 0.028521 0.161298 45.559192
2009-09-18 07:06:48 51°15.492 2°52.117 19.7975 0.028521 0.161321 45.559192
2009-09-18 07:06:53 51°15.5 2°52.093 19.8129 0.028521 0.161321 45.559192
2009-09-18 07:06:58 51°15.507 2°52.07 19.7899 0.028521 0.161336 45.62884
2009-09-18 07:07:03 51°15.515 2°52.046 19.8245 0.028521 0.161339 45.594016
2009-09-18 07:07:08 51°15.523 2°52.023 19.8068 0.028521 0.16133 45.594016
2009-09-18 07:07:13 51°15.531 2°52 19.8128 0.028521 0.161336 45.594016
2009-09-18 07:07:18 51°15.539 2°51.977 19.8161 0.028521 0.161336 45.594016
2009-09-18 07:07:23 51°15.546 2°51.954 19.8156 0.028521 0.161333 45.524368
2009-09-18 07:07:28 51°15.555 2°51.932 19.8053 0.028521 0.161333 45.594016
2009-09-18 07:07:33 51°15.562 2°51.909 19.7959 0.028521 0.161347 45.559192
2009-09-18 07:07:38 51°15.571 2°51.887 19.8005 0.028521 0.161353 45.559192
2009-09-18 07:07:43 51°15.579 2°51.863 19.82 0.028521 0.16133 45.594016
2009-09-18 07:07:48 51°15.587 2°51.841 19.8081 0.028521 0.16133 45.594016
2009-09-18 07:07:53 51°15.595 2°51.819 19.8254 0.028521 0.161341 45.594016
2009-09-18 07:07:58 51°15.603 2°51.797 19.8161 0.028521 0.16135 45.559192
2009-09-18 07:08:03 51°15.611 2°51.774 19.8283 0.028521 0.161347 45.559192
2009-09-18 07:08:08 51°15.619 2°51.753 19.7121 0.028521 0.16135 45.594016
2009-09-18 07:08:13 51°15.627 2°51.731 19.7852 0.028521 0.161385 45.62884
2009-09-18 07:08:18 51°15.635 2°51.708 19.8623 0.028521 0.161405 45.524368
2009-09-18 07:08:23 51°15.643 2°51.687 19.8507 0.028521 0.161405 45.524368
2009-09-18 07:08:28 51°15.651 2°51.664 19.8498 0.028521 0.161414 45.454719
2009-09-18 07:08:33 51°15.659 2°51.642 19.8452 0.028521 0.161417 45.489544
2009-09-18 07:08:38 51°15.667 2°51.62 19.8393 0.028521 0.161402 45.524368
2009-09-18 07:08:43 51°15.675 2°51.598 19.8391 0.028521 0.161385 45.454719
2009-09-18 07:08:48 51°15.683 2°51.576 19.8362 0.028521 0.161385 45.454719
2009-09-18 07:08:52 51°15.689 2°51.558 19.8137 0.028727 0.162571 45.419895
2009-09-18 07:08:58 51°15.699 2°51.532 19.7862 0.029242 0.165521 45.524368
2009-09-18 07:09:03 51°15.707 2°51.51 19.7973 0.029756 0.168471 45.454719
2009-09-18 07:09:08 51°15.715 2°51.488 19.7981 0.028933 0.163769 45.489544
2009-09-18 07:09:13 51°15.723 2°51.465 19.8058 0.029242 0.165527 45.419895
2009-09-18 07:09:18 51°15.731 2°51.444 19.8074 0.029242 0.165527 45.419895
2009-09-18 07:09:23 51°15.738 2°51.421 19.806 0.02883 0.163173 45.489544
2009-09-18 07:09:28 51°15.746 2°51.399 19.8112 0.029345 0.166097 45.454719
2009-09-18 07:09:33 51°15.755 2°51.377 19.8156 0.029139 0.164918 45.454719
2009-09-18 07:09:38 51°15.763 2°51.355 19.8155 0.029139 0.164912 45.419895
2009-09-18 07:09:43 51°15.771 2°51.333 19.8192 0.029139 0.164906 45.419895
2009-09-18 07:09:48 51°15.779 2°51.311 19.8187 0.029139 0.164906 45.419895
2009-09-18 07:09:53 51°15.787 2°51.289 19.8201 0.029242 0.165485 45.454719
2009-09-18 07:09:58 51°15.795 2°51.267 19.8219 0.029036 0.164307 45.419895
2009-09-18 07:10:03 51°15.804 2°51.245 19.824 0.029345 0.166064 45.350247
2009-09-18 07:10:08 51°15.812 2°51.223 19.8268 0.028933 0.16369 45.419895
2009-09-18 07:10:13 51°15.819 2°51.201 19.83 0.029139 0.164835 45.419895
2009-09-18 07:10:18 51°15.828 2°51.179 19.8327 0.029139 0.164832 45.350247
2009-09-18 07:10:23 51°15.835 2°51.156 19.8413 0.029139 0.164832 45.350247
2009-09-18 07:10:28 51°15.843 2°51.134 19.8364 0.029139 0.164821 45.385071
2009-09-18 07:10:33 51°15.851 2°51.112 19.8381 0.02955 0.167186 45.385071
2009-09-18 07:10:38 51°15.859 2°51.089 19.8418 0.029345 0.166046 45.419895
2009-09-18 07:10:43 51°15.867 2°51.068 19.8407 0.029447 0.166622 45.385071
2009-09-18 07:10:48 51°15.875 2°51.046 19.8442 0.029447 0.166622 45.385071
2009-09-18 07:10:53 51°15.884 2°51.025 19.8477 0.029139 0.164877 45.350247
2009-09-18 07:10:58 51°15.892 2°51.003 19.8483 0.029345 0.166064 45.385071
2009-09-18 07:11:03 51°15.9 2°50.981 19.8474 0.02955 0.167246 45.350247
2009-09-18 07:11:08 51°15.908 2°50.96 19.8499 0.029345 0.16607 45.350247
2009-09-18 07:11:13 51°15.916 2°50.939 19.852 0.029653 0.167834 45.350247
2009-09-18 07:11:18 51°15.924 2°50.917 19.8547 0.029653 0.167834 45.350247
2009-09-18 07:11:23 51°15.932 2°50.895 19.8596 0.029036 0.164307 45.350247
2009-09-18 07:11:28 51°15.941 2°50.875 19.862 0.029139 0.164895 45.315423
2009-09-18 07:11:32 51°15.948 2°50.858 19.8619 0.029036 0.164266 45.350247
2009-09-18 07:11:38 51°15.959 2°50.834 19.8641 0.029139 0.164818 45.315423
2009-09-18 07:11:43 51°15.968 2°50.814 19.8648 0.028933 0.163634 45.315423
2009-09-18 07:11:48 51°15.977 2°50.794 19.8643 0.029447 0.166595 45.280599
2009-09-18 07:11:53 51°15.986 2°50.774 19.8687 0.029447 0.166595 45.280599
2009-09-18 07:11:58 51°15.995 2°50.753 19.8715 0.028933 0.163661 45.245775
2009-09-18 07:12:03 51°16.004 2°50.733 19.8706 0.028933 0.163661 45.280599
2009-09-18 07:12:08 51°16.013 2°50.713 19.8728 0.029345 0.166064 45.280599
2009-09-18 07:12:13 51°16.022 2°50.693 19.8741 0.029036 0.164307 45.315423
2009-09-18 07:12:18 51°16.032 2°50.673 19.8775 0.029345 0.166076 45.210951
2009-09-18 07:12:23 51°16.041 2°50.653 19.8778 0.029345 0.166076 45.210951
2009-09-18 07:12:28 51°16.05 2°50.634 19.8804 0.029036 0.164283 45.245775
2009-09-18 07:12:33 51°16.059 2°50.614 19.8826 0.029242 0.165456 45.176127
2009-09-18 07:12:38 51°16.069 2°50.595 19.8845 0.028933 0.163672 45.210951
2009-09-18 07:12:43 51°16.078 2°50.575 19.8873 0.028933 0.163675 45.176127
2009-09-18 07:12:48 51°16.087 2°50.556 19.8884 0.028933 0.163675 45.176127
2009-09-18 07:12:52 51°16.095 2°50.541 19.8902 0.02883 0.163079 45.210951
2009-09-18 07:12:58 51°16.106 2°50.518 19.8913 0.029036 0.164254 45.141303
2009-09-18 07:13:03 51°16.116 2°50.5 19.8933 0.029242 0.165432 45.176127
2009-09-18 07:13:08 51°16.126 2°50.481 19.8964 0.029139 0.164883 45.245775
2009-09-18 07:13:13 51°16.136 2°50.464 19.8973 0.029653 0.167837 45.176127
2009-09-18 07:13:18 51°16.146 2°50.447 19.8986 0.029653 0.167837 45.176127
2009-09-18 07:13:23 51°16.156 2°50.429 19.9005 0.029859 0.169026 45.176127
2009-09-18 07:13:28 51°16.167 2°50.412 19.9029 0.029139 0.164909 45.176127
2009-09-18 07:13:33 51°16.177 2°50.394 19.9041 0.029242 0.165497 45.141303
2009-09-18 07:13:38 51°16.188 2°50.377 19.9065 0.029242 0.165509 45.176127
2009-09-18 07:13:43 51°16.198 2°50.36 19.9079 0.029036 0.164333 45.141303
2009-09-18 07:13:48 51°16.209 2°50.342 19.9091 0.029447 0.1667 45.071655
2009-09-18 07:13:53 51°16.219 2°50.325 19.9108 0.029447 0.1667 45.071655
2009-09-18 07:13:58 51°16.23 2°50.308 19.912 0.029242 0.165539 45.141303
2009-09-18 07:14:03 51°16.24 2°50.291 19.9142 0.029036 0.164381 45.106479
2009-09-18 07:14:08 51°16.251 2°50.274 19.9146 0.029139 0.164969 45.071655
2009-09-18 07:14:13 51°16.262 2°50.257 19.9184 0.028933 0.163749 45.036831
2009-09-18 07:14:18 51°16.273 2°50.241 19.9206 0.028933 0.163749 45.036831
2009-09-18 07:14:23 51°16.284 2°50.224 19.9224 0.028933 0.163716 45.106479
2009-09-18 07:14:28 51°16.295 2°50.208 19.9254 0.029242 0.165515 45.036831
2009-09-18 07:14:33 51°16.306 2°50.192 19.9263 0.029139 0.164948 45.106479
2009-09-18 07:14:38 51°16.317 2°50.176 19.9294 0.028933 0.163772 45.071655
2009-09-18 07:14:43 51°16.328 2°50.16 19.9313 0.029447 0.166715 45.002007
2009-09-18 07:14:48 51°16.339 2°50.144 19.933 0.029447 0.166715 45.002007
2009-09-18 07:14:53 51°16.35 2°50.128 19.9328 0.029036 0.164395 45.106479
2009-09-18 07:14:58 51°16.362 2°50.113 19.9363 0.028933 0.163793 45.036831
2009-09-18 07:15:03 51°16.374 2°50.098 19.9382 0.029139 0.164954 45.002007
2009-09-18 07:15:08 51°16.386 2°50.084 19.9403 0.028933 0.163787 45.036831
2009-09-18 07:15:13 51°16.397 2°50.069 19.9425 0.029036 0.164395 44.967183
2009-09-18 07:15:18 51°16.409 2°50.056 19.9446 0.029242 0.165589 45.002007
2009-09-18 07:15:23 51°16.421 2°50.042 19.9428 0.029242 0.165589 45.002007
2009-09-18 07:15:28 51°16.434 2°50.029 19.9463 0.028933 0.163831 45.002007
2009-09-18 07:15:33 51°16.446 2°50.015 19.9468 0.028933 0.163781 45.002007
2009-09-18 07:15:38 51°16.458 2°50.003 19.9521 0.02883 0.163188 44.932359
2009-09-18 07:15:43 51°16.47 2°49.989 19.955 0.029242 0.165539 45.002007
2009-09-18 07:15:48 51°16.482 2°49.976 19.9566 0.029242 0.165539 45.002007
2009-09-18 07:15:53 51°16.495 2°49.964 19.9573 0.029653 0.167907 44.967183
2009-09-18 07:15:58 51°16.507 2°49.951 19.959 0.029139 0.164975 44.967183
2009-09-18 07:16:03 51°16.519 2°49.938 19.9601 0.02955 0.167337 44.897535
2009-09-18 07:16:08 51°16.532 2°49.925 19.96 0.029242 0.165572 44.967183
2009-09-18 07:16:13 51°16.544 2°49.912 19.965 0.028933 0.163793 44.932359
2009-09-18 07:16:18 51°16.557 2°49.899 19.9677 0.028933 0.163793 44.932359
2009-09-18 07:16:23 51°16.569 2°49.885 19.9707 0.029139 0.164963 44.932359
2009-09-18 07:16:28 51°16.581 2°49.872 19.9697 0.029139 0.164972 44.897535
2009-09-18 07:16:33 51°16.593 2°49.859 19.9717 0.028933 0.163799 44.967183
2009-09-18 07:16:38 51°16.605 2°49.845 19.9708 0.02883 0.163214 44.897535
2009-09-18 07:16:43 51°16.617 2°49.832 19.976 0.029036 0.164372 44.897535
2009-09-18 07:16:48 51°16.629 2°49.818 19.9781 0.029036 0.164372 44.897535
2009-09-18 07:16:53 51°16.642 2°49.805 19.9731 0.02883 0.163202 44.897535
2009-09-18 07:16:58 51°16.655 2°49.792 19.9806 0.02883 0.163211 44.932359
2009-09-18 07:17:03 51°16.668 2°49.779 19.9802 0.028727 0.162635 44.897535
2009-09-18 07:17:08 51°16.68 2°49.766 19.981 0.028727 0.162664 44.862711
2009-09-18 07:17:13 51°16.693 2°49.754 19.9868 0.028727 0.162679 44.897535
2009-09-18 07:17:18 51°16.705 2°49.742 19.9908 0.028727 0.162685 44.862711
2009-09-18 07:17:23 51°16.718 2°49.729 19.9922 0.028727 0.162685 44.862711
2009-09-18 07:17:28 51°16.73 2°49.717 19.9945 0.028727 0.162696 44.862711
2009-09-18 07:17:33 51°16.742 2°49.705 19.9959 0.02883 0.163296 44.827887
2009-09-18 07:17:38 51°16.755 2°49.693 19.996 0.028727 0.162714 44.862711
2009-09-18 07:17:43 51°16.767 2°49.681 20.0024 0.029036 0.164461 44.897535
2009-09-18 07:17:48 51°16.779 2°49.669 20.0024 0.029036 0.164461 44.897535
2009-09-18 07:17:53 51°16.791 2°49.657 20.006 0.028933 0.163869 44.758238
2009-09-18 07:17:58 51°16.804 2°49.646 20.009 0.028933 0.163864 44.897535
2009-09-18 07:18:03 51°16.816 2°49.635 20.012 0.02883 0.16329 44.862711
2009-09-18 07:18:08 51°16.828 2°49.622 20.0114 0.028933 0.163896 44.793062
2009-09-18 07:18:13 51°16.84 2°49.611 20.0106 0.029139 0.165084 44.793062
2009-09-18 07:18:18 51°16.852 2°49.599 20.0074 0.029139 0.165084 44.793062
2009-09-18 07:18:23 51°16.864 2°49.587 20.0146 0.02883 0.163331 44.827887
2009-09-18 07:18:28 51°16.876 2°49.576 20.0158 0.02883 0.163308 44.793062
2009-09-18 07:18:33 51°16.888 2°49.566 20.0191 0.028727 0.162714 44.827887
2009-09-18 07:18:38 51°16.9 2°49.555 20.0262 0.029139 0.165073 44.793062
2009-09-18 07:18:43 51°16.912 2°49.545 20.0303 0.028933 0.163931 44.793062
2009-09-18 07:18:48 51°16.924 2°49.536 20.0286 0.029345 0.166306 44.758238
2009-09-18 07:18:53 51°16.936 2°49.527 20.0319 0.029345 0.166306 44.758238
2009-09-18 07:18:58 51°16.949 2°49.518 20.0328 0.029139 0.165135 44.862711
2009-09-18 07:19:03 51°16.961 2°49.508 20.0354 0.02955 0.167521 44.723414
2009-09-18 07:19:08 51°16.973 2°49.5 20.0431 0.029036 0.164606 44.793062
2009-09-18 07:19:13 51°16.986 2°49.491 20.0445 0.02955 0.167569 44.827887
2009-09-18 07:19:18 51°16.998 2°49.482 20.0481 0.02955 0.167569 44.758238
2009-09-18 07:19:23 51°17.01 2°49.472 20.0454 0.02955 0.167569 44.758238
2009-09-18 07:19:28 51°17.022 2°49.463 20.0503 0.029139 0.165221 44.758238
2009-09-18 07:19:33 51°17.034 2°49.453 20.0522 0.029242 0.16581 44.793062
2009-09-18 07:19:38 51°17.046 2°49.443 20.0544 0.029036 0.164629 44.793062
2009-09-18 07:19:43 51°17.059 2°49.433 20.0562 0.028933 0.16404 44.758238
2009-09-18 07:19:48 51°17.071 2°49.422 20.0545 0.028933 0.16404 44.758238
2009-09-18 07:19:53 51°17.083 2°49.412 20.059 0.029345 0.166399 44.793062
2009-09-18 07:19:58 51°17.095 2°49.401 20.0524 0.029242 0.165804 44.758238
2009-09-18 07:20:03 51°17.107 2°49.39 20.0642 0.028933 0.164023 44.758238
2009-09-18 07:20:08 51°17.119 2°49.38 20.0676 0.02955 0.167536 44.758238
2009-09-18 07:20:13 51°17.132 2°49.371 20.0628 0.028933 0.164014 44.758238
2009-09-18 07:20:18 51°17.144 2°49.36 20.0657 0.028933 0.164014 44.758238
2009-09-18 07:20:23 51°17.156 2°49.35 20.0705 0.02883 0.163414 44.723414
2009-09-18 07:20:28 51°17.169 2°49.34 20.0722 0.02883 0.163334 44.758238
2009-09-18 07:20:33 51°17.181 2°49.329 20.0688 0.028727 0.162752 44.793062
2009-09-18 07:20:38 51°17.193 2°49.319 20.0781 0.028727 0.162802 44.723414
2009-09-18 07:20:43 51°17.205 2°49.309 20.0807 0.028933 0.16399 44.723414
2009-09-18 07:20:48 51°17.218 2°49.299 20.084 0.029242 0.165789 44.758238
2009-09-18 07:20:53 51°17.23 2°49.289 20.0785 0.029242 0.165789 44.758238
2009-09-18 07:20:58 51°17.243 2°49.278 20.0883 0.028933 0.164038 44.793062
2009-09-18 07:21:03 51°17.255 2°49.268 20.0883 0.029139 0.165215 44.758238
2009-09-18 07:21:08 51°17.267 2°49.257 20.0909 0.029036 0.164629 44.723414
2009-09-18 07:21:13 51°17.28 2°49.247 20.087 0.028933 0.163978 44.758238
2009-09-18 07:21:18 51°17.292 2°49.236 20.0972 0.02883 0.163378 44.758238
2009-09-18 07:21:23 51°17.304 2°49.225 20.0921 0.02883 0.163378 44.758238
2009-09-18 07:21:28 51°17.317 2°49.214 20.1025 0.028933 0.163973 44.723414
2009-09-18 07:21:33 51°17.329 2°49.203 20.1018 0.029242 0.165742 44.723414
2009-09-18 07:21:38 51°17.342 2°49.193 20.1026 0.02883 0.163378 44.723414
2009-09-18 07:21:43 51°17.354 2°49.182 20.1057 0.02883 0.163361 44.723414
2009-09-18 07:21:48 51°17.367 2°49.172 20.1135 0.02883 0.163361 44.723414
2009-09-18 07:21:53 51°17.379 2°49.161 20.1107 0.029139 0.165132 44.68859
2009-09-18 07:21:58 51°17.392 2°49.15 20.115 0.028933 0.163958 44.723414
2009-09-18 07:22:03 51°17.405 2°49.139 20.1146 0.029036 0.164564 44.68859
2009-09-18 07:22:08 51°17.417 2°49.128 20.1158 0.02883 0.163378 44.68859
2009-09-18 07:22:13 51°17.43 2°49.117 20.1137 0.028933 0.163996 44.723414
2009-09-18 07:22:18 51°17.442 2°49.107 20.1174 0.02883 0.163419 44.723414
2009-09-18 07:22:23 51°17.455 2°49.095 20.1268 0.02883 0.163419 44.723414
2009-09-18 07:22:28 51°17.467 2°49.085 20.1308 0.028933 0.163984 44.723414
2009-09-18 07:22:33 51°17.48 2°49.074 20.1264 0.028933 0.164017 44.68859
2009-09-18 07:22:38 51°17.492 2°49.063 20.1283 0.029036 0.164606 44.68859
2009-09-18 07:22:43 51°17.505 2°49.052 20.1312 0.02883 0.163414 44.68859
2009-09-18 07:22:48 51°17.517 2°49.041 20.1334 0.02883 0.163422 44.723414
2009-09-18 07:22:53 51°17.53 2°49.029 20.135 0.02883 0.163422 44.723414
2009-09-18 07:22:58 51°17.543 2°49.018 20.1416 0.028933 0.164026 44.68859
2009-09-18 07:23:03 51°17.555 2°49.007 20.1454 0.029139 0.165212 44.68859
2009-09-18 07:23:08 51°17.568 2°48.996 20.1408 0.02883 0.163458 44.723414
2009-09-18 07:23:13 51°17.58 2°48.985 20.1478 0.02883 0.163455 44.653766
2009-09-18 07:23:18 51°17.592 2°48.974 20.1452 0.02883 0.163455 44.653766
2009-09-18 07:23:23 51°17.604 2°48.963 20.1429 0.029036 0.164635 44.68859
2009-09-18 07:23:28 51°17.616 2°48.952 20.1579 0.029036 0.164635 44.723414
2009-09-18 07:23:33 51°17.629 2°48.941 20.1538 0.029139 0.165218 44.653766
2009-09-18 07:23:38 51°17.641 2°48.93 20.1584 0.029345 0.166414 44.618942
2009-09-18 07:23:43 51°17.654 2°48.919 20.1564 0.029345 0.166435 44.618942
2009-09-18 07:23:48 51°17.667 2°48.909 20.1662 0.029345 0.166435 44.618942
2009-09-18 07:23:52 51°17.677 2°48.9 20.1562 0.029036 0.164689 44.68859
2009-09-18 07:23:58 51°17.692 2°48.888 20.1663 0.028933 0.164108 44.68859
2009-09-18 07:24:03 51°17.705 2°48.876 20.1625 0.029139 0.165263 44.618942
2009-09-18 07:24:08 51°17.718 2°48.866 20.1726 0.028933 0.164026 44.653766
2009-09-18 07:24:13 51°17.731 2°48.855 20.183 0.029345 0.166402 44.68859
2009-09-18 07:24:18 51°17.744 2°48.845 20.1833 0.029345 0.166411 44.653766
2009-09-18 07:24:23 51°17.757 2°48.834 20.1765 0.029345 0.166411 44.653766
2009-09-18 07:24:28 51°17.769 2°48.824 20.1851 0.028933 0.164061 44.653766
2009-09-18 07:24:33 51°17.782 2°48.813 20.1954 0.029447 0.167016 44.653766
2009-09-18 07:24:38 51°17.795 2°48.803 20.1829 0.02955 0.167608 44.584118
2009-09-18 07:24:43 51°17.808 2°48.792 20.1876 0.029345 0.166429 44.618942
2009-09-18 07:24:48 51°17.821 2°48.781 20.1965 0.02955 0.167614 44.618942
2009-09-18 07:24:53 51°17.834 2°48.771 20.1967 0.02955 0.167614 44.618942
2009-09-18 07:24:58 51°17.847 2°48.761 20.1967 0.029447 0.167031 44.584118
2009-09-18 07:25:03 51°17.86 2°48.75 20.2054 0.029139 0.16526 44.653766
2009-09-18 07:25:08 51°17.873 2°48.74 20.2064 0.029345 0.166426 44.618942
2009-09-18 07:25:13 51°17.886 2°48.729 20.2087 0.029345 0.166438 44.584118
2009-09-18 07:25:18 51°17.899 2°48.719 20.2099 0.029345 0.166438 44.584118
2009-09-18 07:25:23 51°17.912 2°48.709 20.2133 0.029242 0.165846 44.584118
2009-09-18 07:25:28 51°17.925 2°48.699 20.2168 0.02955 0.167629 44.618942
2009-09-18 07:25:33 51°17.938 2°48.688 20.2195 0.02955 0.167657 44.584118
2009-09-18 07:25:38 51°17.951 2°48.677 20.2206 0.029345 0.166417 44.618942
2009-09-18 07:25:43 51°17.964 2°48.667 20.2115 0.029653 0.168195 44.549294
2009-09-18 07:25:48 51°17.977 2°48.657 20.2299 0.029653 0.168195 44.549294
2009-09-18 07:25:53 51°17.99 2°48.646 20.227 0.029345 0.166441 44.618942
2009-09-18 07:25:58 51°18.002 2°48.635 20.2339 0.029447 0.167037 44.549294
2009-09-18 07:26:03 51°18.015 2°48.625 20.2367 0.029345 0.166447 44.549294
2009-09-18 07:26:08 51°18.028 2°48.613 20.2228 0.02955 0.167629 44.584118
2009-09-18 07:26:13 51°18.041 2°48.602 20.2412 0.029242 0.16584 44.584118
2009-09-18 07:26:18 51°18.054 2°48.591 20.2424 0.029345 0.166432 44.549294
2009-09-18 07:26:23 51°18.067 2°48.579 20.2439 0.029345 0.166432 44.549294
2009-09-18 07:26:28 51°18.08 2°48.567 20.2399 0.029139 0.165266 44.549294
2009-09-18 07:26:32 51°18.09 2°48.558 20.2461 0.029036 0.164662 44.549294
2009-09-18 07:26:38 51°18.105 2°48.544 20.2483 0.029345 0.166438 44.51447
2009-09-18 07:26:43 51°18.119 2°48.532 20.251 0.029653 0.168216 44.549294
2009-09-18 07:26:48 51°18.131 2°48.52 20.2531 0.029653 0.168216 44.549294
2009-09-18 07:26:53 51°18.144 2°48.508 20.2473 0.029345 0.166453 44.51447
2009-09-18 07:26:58 51°18.157 2°48.496 20.2466 0.029139 0.165281 44.549294
2009-09-18 07:27:03 51°18.17 2°48.484 20.2608 0.028933 0.164105 44.51447
2009-09-18 07:27:08 51°18.183 2°48.472 20.2457 0.029139 0.16529 44.51447
2009-09-18 07:27:13 51°18.196 2°48.46 20.257 0.029139 0.165287 44.51447
2009-09-18 07:27:18 51°18.209 2°48.448 20.2641 0.029139 0.165287 44.51447
2009-09-18 07:27:24 51°18.225 2°48.434 20.2612 0.028933 0.16412 44.51447
2009-09-18 07:27:28 51°18.235 2°48.425 20.2715 0.029242 0.165903 44.51447
2009-09-18 07:27:33 51°18.248 2°48.413 20.2715 0.029139 0.165328 44.51447
2009-09-18 07:27:38 51°18.261 2°48.401 20.2786 0.029447 0.167091 44.51447
2009-09-18 07:27:43 51°18.274 2°48.389 20.2721 0.028933 0.16415 44.51447
2009-09-18 07:27:48 51°18.287 2°48.378 20.2812 0.028933 0.16415 44.51447
2009-09-18 07:27:53 51°18.3 2°48.366 20.2617 0.029139 0.165325 44.51447
2009-09-18 07:27:58 51°18.313 2°48.354 20.2793 0.02883 0.163555 44.51447
2009-09-18 07:28:03 51°18.326 2°48.342 20.2678 0.029036 0.164709 44.549294
2009-09-18 07:28:08 51°18.339 2°48.33 20.2845 0.02883 0.163505 44.479646
2009-09-18 07:28:13 51°18.353 2°48.318 20.285 0.02883 0.163511 44.51447
2009-09-18 07:28:18 51°18.366 2°48.306 20.2845 0.02883 0.163516 44.479646
2009-09-18 07:28:23 51°18.379 2°48.295 20.2929 0.02883 0.163516 44.479646
2009-09-18 07:28:28 51°18.392 2°48.283 20.2822 0.028933 0.164114 44.444822
2009-09-18 07:28:33 51°18.405 2°48.272 20.2806 0.02883 0.163531 44.479646
2009-09-18 07:28:38 51°18.418 2°48.26 20.3007 0.02883 0.163537 44.479646
2009-09-18 07:28:43 51°18.432 2°48.249 20.2959 0.029036 0.164748 44.444822
2009-09-18 07:28:48 51°18.445 2°48.237 20.2896 0.029036 0.164748 44.444822
2009-09-18 07:28:53 51°18.458 2°48.225 20.2948 0.028933 0.164165 44.479646
2009-09-18 07:28:58 51°18.471 2°48.212 20.3103 0.028933 0.164162 44.444822
2009-09-18 07:29:03 51°18.484 2°48.2 20.2875 0.029036 0.164769 44.51447
2009-09-18 07:29:08 51°18.496 2°48.187 20.3086 0.028933 0.164188 44.444822
2009-09-18 07:29:13 51°18.509 2°48.174 20.3149 0.02883 0.163623 44.444822
2009-09-18 07:29:18 51°18.522 2°48.162 20.2998 0.02883 0.163623 44.444822
2009-09-18 07:29:23 51°18.534 2°48.148 20.2987 0.029036 0.164822 44.479646
2009-09-18 07:29:28 51°18.547 2°48.135 20.3055 0.02883 0.163637 44.444822
2009-09-18 07:29:33 51°18.56 2°48.122 20.3152 0.02883 0.16362 44.409998
2009-09-18 07:29:38 51°18.572 2°48.109 20.3146 0.02883 0.16362 44.444822
2009-09-18 07:29:43 51°18.585 2°48.096 20.304 0.02883 0.163631 44.444822
2009-09-18 07:29:48 51°18.597 2°48.083 20.3105 0.028727 0.163063 44.409998
2009-09-18 07:29:53 51°18.61 2°48.069 20.3188 0.028727 0.163063 44.409998
2009-09-18 07:29:58 51°18.623 2°48.055 20.3094 0.028727 0.16308 44.444822
2009-09-18 07:30:03 51°18.635 2°48.042 20.3322 0.028727 0.163092 44.409998
2009-09-18 07:30:08 51°18.647 2°48.028 20.3268 0.029036 0.164903 44.34035
2009-09-18 07:30:13 51°18.66 2°48.014 20.328 0.02883 0.163708 44.444822
2009-09-18 07:30:18 51°18.672 2°48 20.3283 0.02883 0.163699 44.409998
2009-09-18 07:30:23 51°18.685 2°47.987 20.3245 0.02883 0.163699 44.409998
2009-09-18 07:30:28 51°18.697 2°47.973 20.3356 0.028727 0.16311 44.409998
2009-09-18 07:30:33 51°18.709 2°47.959 20.3408 0.028727 0.163119 44.34035
2009-09-18 07:30:38 51°18.721 2°47.945 20.3496 0.02883 0.163735 44.409998
2009-09-18 07:30:43 51°18.734 2°47.932 20.3391 0.02883 0.163735 44.375174
2009-09-18 07:30:48 51°18.746 2°47.918 20.3544 0.02883 0.163735 44.375174
2009-09-18 07:30:53 51°18.758 2°47.904 20.3487 0.02883 0.163738 44.444822
2009-09-18 07:30:58 51°18.771 2°47.891 20.3531 0.028933 0.164363 44.375174
2009-09-18 07:31:03 51°18.783 2°47.876 20.3413 0.02883 0.1638 44.375174
2009-09-18 07:31:08 51°18.795 2°47.862 20.3546 0.02883 0.1638 44.34035
2009-09-18 07:31:13 51°18.807 2°47.849 20.3478 0.029036 0.164977 44.375174
2009-09-18 07:31:18 51°18.819 2°47.835 20.3664 0.02883 0.163788 44.34035
2009-09-18 07:31:23 51°18.831 2°47.82 20.3588 0.02883 0.163788 44.34035
2009-09-18 07:31:28 51°18.843 2°47.807 20.3719 0.028933 0.164378 44.409998
2009-09-18 07:31:33 51°18.855 2°47.792 20.3723 0.028933 0.164381 44.305526
2009-09-18 07:31:38 51°18.868 2°47.779 20.3812 0.02883 0.163791 44.375174
2009-09-18 07:31:43 51°18.88 2°47.765 20.3662 0.029036 0.164977 44.375174
2009-09-18 07:31:48 51°18.892 2°47.75 20.381 0.028933 0.164366 44.34035
2009-09-18 07:31:53 51°18.904 2°47.736 20.3779 0.028933 0.164366 44.34035
2009-09-18 07:31:58 51°18.916 2°47.722 20.3857 0.02883 0.163773 44.34035
2009-09-18 07:32:03 51°18.929 2°47.708 20.3823 0.028727 0.163195 44.375174
2009-09-18 07:32:08 51°18.94 2°47.693 20.3824 0.028727 0.163201 44.34035
2009-09-18 07:32:13 51°18.953 2°47.679 20.3652 0.028727 0.163201 44.34035
2009-09-18 07:32:18 51°18.965 2°47.664 20.3835 0.028727 0.163201 44.34035
2009-09-18 07:32:23 51°18.978 2°47.651 20.3864 0.028727 0.163204 44.305526
2009-09-18 07:32:28 51°18.989 2°47.636 20.3973 0.028727 0.163224 44.34035
2009-09-18 07:32:33 51°19.002 2°47.622 20.4016 0.02883 0.163815 44.305526
2009-09-18 07:32:38 51°19.014 2°47.608 20.5168 0.028727 0.163227 44.305526
2009-09-18 07:32:43 51°19.026 2°47.593 20.4482 0.030991 0.176275 44.549294
2009-09-18 07:32:48 51°19.038 2°47.579 20.4216 0.030991 0.176275 44.549294
2009-09-18 07:32:53 51°19.05 2°47.565 20.4136 0.030991 0.176339 44.758238
2009-09-18 07:32:58 51°19.062 2°47.551 20.4016 0.029756 0.169246 44.793062
2009-09-18 07:33:03 51°19.074 2°47.536 20.3818 0.030168 0.171632 44.827887
2009-09-18 07:33:08 51°19.086 2°47.522 20.3978 0.029447 0.167512 44.932359
2009-09-18 07:33:13 51°19.098 2°47.508 20.4111 0.029345 0.166839 44.932359
2009-09-18 07:33:18 51°19.11 2°47.494 20.4077 0.029242 0.16623 44.932359
2009-09-18 07:33:23 51°19.122 2°47.48 20.4235 0.029242 0.16623 44.932359
2009-09-18 07:33:28 51°19.134 2°47.466 20.4248 0.029139 0.165654 45.002007
2009-09-18 07:33:33 51°19.147 2°47.452 20.4098 0.029139 0.165657 44.932359
2009-09-18 07:33:38 51°19.159 2°47.438 20.4202 0.029139 0.165663 44.932359
2009-09-18 07:33:43 51°19.171 2°47.424 20.4077 0.029036 0.165087 44.967183
2009-09-18 07:33:48 51°19.183 2°47.41 20.4106 0.029036 0.165075 44.967183
2009-09-18 07:33:53 51°19.195 2°47.396 20.4143 0.029036 0.165075 44.967183
2009-09-18 07:33:58 51°19.207 2°47.382 20.4135 0.029036 0.165073 44.967183
2009-09-18 07:34:03 51°19.219 2°47.368 20.4181 0.029036 0.165081 45.002007
2009-09-18 07:34:08 51°19.231 2°47.354 20.4188 0.029447 0.167436 44.932359
2009-09-18 07:34:13 51°19.243 2°47.34 20.4094 0.029345 0.166848 45.036831
2009-09-18 07:34:18 51°19.255 2°47.326 20.4137 0.029345 0.166848 45.036831
2009-09-18 07:34:23 51°19.267 2°47.311 20.4189 0.029139 0.165669 45.002007
2009-09-18 07:34:28 51°19.279 2°47.297 20.4209 0.029447 0.167454 45.002007
2009-09-18 07:34:33 51°19.291 2°47.283 20.4182 0.029242 0.166305 45.036831
2009-09-18 07:34:38 51°19.304 2°47.269 20.4173 0.02955 0.168091 45.071655
2009-09-18 07:34:43 51°19.316 2°47.255 20.4192 0.029447 0.1675 45.036831
2009-09-18 07:34:48 51°19.328 2°47.241 20.4155 0.029447 0.1675 45.036831
2009-09-18 07:34:53 51°19.341 2°47.227 20.4222 0.029447 0.167512 45.036831
2009-09-18 07:34:58 51°19.353 2°47.213 20.4284 0.029345 0.16693 45.106479
2009-09-18 07:35:03 51°19.365 2°47.199 20.425 0.029139 0.165702 45.106479
2009-09-18 07:35:08 51°19.377 2°47.184 20.4195 0.029036 0.165084 45.106479
2009-09-18 07:35:13 51°19.389 2°47.17 20.4211 0.029447 0.167466 45.141303
2009-09-18 07:35:18 51°19.402 2°47.156 20.4246 0.029242 0.166293 45.071655
2009-09-18 07:35:23 51°19.414 2°47.142 20.4244 0.029242 0.166293 45.071655
2009-09-18 07:35:28 51°19.426 2°47.129 20.419 0.029036 0.165135 45.210951
2009-09-18 07:35:33 51°19.438 2°47.114 20.4246 0.029242 0.166353 45.280599
2009-09-18 07:35:38 51°19.45 2°47.1 20.4276 0.029345 0.166936 45.210951
2009-09-18 07:35:43 51°19.462 2°47.086 20.4189 0.029036 0.165147 45.315423
2009-09-18 07:35:48 51°19.473 2°47.072 20.4258 0.029036 0.165147 45.315423
2009-09-18 07:35:53 51°19.485 2°47.058 20.4292 0.028933 0.164559 45.315423
2009-09-18 07:35:58 51°19.498 2°47.044 20.4221 0.029036 0.165165 45.315423
2009-09-18 07:36:03 51°19.51 2°47.03 20.4219 0.029036 0.165156 45.385071
2009-09-18 07:36:08 51°19.522 2°47.016 20.4238 0.029036 0.165132 45.419895
2009-09-18 07:36:13 51°19.535 2°47.001 20.4268 0.029242 0.166308 45.350247
2009-09-18 07:36:18 51°19.547 2°46.987 20.426 0.029242 0.166308 45.350247
2009-09-18 07:36:23 51°19.559 2°46.973 20.4262 0.029139 0.165726 45.385071
2009-09-18 07:36:28 51°19.572 2°46.959 20.4296 0.029345 0.166908 45.350247
2009-09-18 07:36:33 51°19.584 2°46.945 20.4274 0.029036 0.165126 45.454719
2009-09-18 07:36:38 51°19.596 2°46.931 20.429 0.029139 0.165717 45.489544
2009-09-18 07:36:43 51°19.608 2°46.917 20.4356 0.029242 0.166308 45.419895
2009-09-18 07:36:48 51°19.62 2°46.903 20.4385 0.029242 0.166317 45.524368
2009-09-18 07:36:53 51°19.632 2°46.889 20.4382 0.029242 0.166317 45.524368
2009-09-18 07:36:58 51°19.645 2°46.875 20.4337 0.029036 0.165138 45.524368
2009-09-18 07:37:03 51°19.657 2°46.861 20.4364 0.029036 0.16518 45.524368
2009-09-18 07:37:08 51°19.669 2°46.847 20.4394 0.030065 0.171118 45.454719
2009-09-18 07:37:13 51°19.681 2°46.833 20.4385 0.029242 0.166393 45.559192
2009-09-18 07:37:18 51°19.693 2°46.819 20.4358 0.029242 0.16639 45.524368
2009-09-18 07:37:23 51°19.705 2°46.805 20.4428 0.029242 0.16639 45.524368
2009-09-18 07:37:28 51°19.717 2°46.791 20.4365 0.029139 0.165759 45.559192
2009-09-18 07:37:33 51°19.73 2°46.777 20.4367 0.029036 0.165177 45.594016
2009-09-18 07:37:38 51°19.742 2°46.764 20.4422 0.029242 0.166377 45.559192
2009-09-18 07:37:43 51°19.754 2°46.75 20.4398 0.029036 0.16518 45.62884
2009-09-18 07:37:48 51°19.766 2°46.736 20.4407 0.029036 0.16518 45.62884
2009-09-18 07:37:53 51°19.779 2°46.722 20.4415 0.029036 0.165177 45.62884
2009-09-18 07:37:58 51°19.791 2°46.708 20.4434 0.029036 0.165189 45.594016
2009-09-18 07:38:03 51°19.803 2°46.694 20.4474 0.028933 0.164583 45.663664
2009-09-18 07:38:08 51°19.816 2°46.68 20.4458 0.029036 0.16518 45.698488
2009-09-18 07:38:13 51°19.828 2°46.667 20.4473 0.028933 0.164589 45.698488
2009-09-18 07:38:18 51°19.841 2°46.653 20.4492 0.028933 0.164589 45.698488
2009-09-18 07:38:23 51°19.853 2°46.639 20.4499 0.029242 0.166371 45.733312
2009-09-18 07:38:28 51°19.866 2°46.625 20.4492 0.029242 0.166359 45.698488
2009-09-18 07:38:33 51°19.878 2°46.612 20.4498 0.029036 0.165168 45.80296
2009-09-18 07:38:38 51°19.891 2°46.599 20.4519 0.029345 0.16696 45.733312
2009-09-18 07:38:43 51°19.903 2°46.585 20.4522 0.029036 0.165198 45.768136
2009-09-18 07:38:48 51°19.916 2°46.572 20.4527 0.029139 0.165795 45.768136
2009-09-18 07:38:53 51°19.928 2°46.558 20.4561 0.029139 0.165795 45.768136
2009-09-18 07:38:58 51°19.941 2°46.544 20.4548 0.029036 0.165204 45.872608
2009-09-18 07:39:03 51°19.953 2°46.531 20.4594 0.029345 0.166954 45.80296
2009-09-18 07:39:08 51°19.966 2°46.517 20.4565 0.029345 0.166951 45.837784
2009-09-18 07:39:13 51°19.978 2°46.503 20.458 0.029345 0.166942 45.872608
2009-09-18 07:39:18 51°19.99 2°46.489 20.462 0.029653 0.168756 45.907432
2009-09-18 07:39:23 51°20.003 2°46.477 20.4592 0.029653 0.168756 45.907432
2009-09-18 07:39:28 51°20.016 2°46.464 20.4636 0.029139 0.16581 45.942256
2009-09-18 07:39:33 51°20.028 2°46.45 20.463 0.029242 0.166368 45.907432
2009-09-18 07:39:38 51°20.041 2°46.437 20.4618 0.029242 0.166408 45.942256
2009-09-18 07:39:43 51°20.054 2°46.425 20.4627 0.029447 0.167588 45.872608
2009-09-18 07:39:48 51°20.067 2°46.412 20.4635 0.029447 0.167588 45.872608
2009-09-18 07:39:53 51°20.08 2°46.401 20.4639 0.029139 0.165843 45.907432
2009-09-18 07:39:58 51°20.093 2°46.389 20.4678 0.029139 0.165825 45.942256
2009-09-18 07:40:03 51°20.106 2°46.377 20.4669 0.029139 0.165801 45.942256
2009-09-18 07:40:08 51°20.119 2°46.365 20.4676 0.029036 0.165216 46.011904
2009-09-18 07:40:13 51°20.132 2°46.353 20.4674 0.029242 0.166414 45.837784
2009-09-18 07:40:18 51°20.145 2°46.341 20.471 0.029242 0.166411 46.011904
2009-09-18 07:40:23 51°20.158 2°46.33 20.4693 0.029242 0.166411 46.011904
2009-09-18 07:40:28 51°20.171 2°46.318 20.4677 0.029036 0.165246 45.97708
2009-09-18 07:40:33 51°20.185 2°46.307 20.4705 0.028933 0.164672 46.046728
2009-09-18 07:40:38 51°20.198 2°46.296 20.473 0.029036 0.16527 45.907432
2009-09-18 07:40:43 51°20.211 2°46.284 20.4702 0.029242 0.16648 45.97708
2009-09-18 07:40:48 51°20.224 2°46.273 20.4705 0.028933 0.164699 46.011904
2009-09-18 07:40:53 51°20.237 2°46.262 20.4747 0.028933 0.164699 46.011904
2009-09-18 07:40:58 51°20.251 2°46.249 20.4712 0.029345 0.167075 45.97708
2009-09-18 07:41:04 51°20.266 2°46.236 20.4751 0.029036 0.165309 46.046728
2009-09-18 07:41:08 51°20.277 2°46.226 20.4762 0.028933 0.164714 46.011904
2009-09-18 07:41:13 51°20.29 2°46.215 20.4751 0.028933 0.164717 46.081552
2009-09-18 07:41:18 51°20.303 2°46.203 20.4763 0.028933 0.164717 46.081552
2009-09-18 07:41:23 51°20.317 2°46.192 20.4786 0.028933 0.16472 46.046728
2009-09-18 07:41:28 51°20.33 2°46.18 20.4783 0.02883 0.164126 46.011904
2009-09-18 07:41:32 51°20.34 2°46.171 20.4812 0.028933 0.164717 46.046728
2009-09-18 07:41:38 51°20.356 2°46.157 20.4827 0.02883 0.164126 46.011904
2009-09-18 07:41:43 51°20.369 2°46.145 20.4824 0.028933 0.164723 46.081552
2009-09-18 07:41:48 51°20.383 2°46.134 20.4825 0.028933 0.164723 46.081552
2009-09-18 07:41:53 51°20.396 2°46.122 20.4816 0.029036 0.165327 46.081552
2009-09-18 07:41:58 51°20.409 2°46.111 20.4843 0.029036 0.165309 46.046728
2009-09-18 07:42:03 51°20.422 2°46.099 20.4846 0.029036 0.165318 46.046728
2009-09-18 07:42:08 51°20.435 2°46.087 20.4854 0.029036 0.165321 46.081552
2009-09-18 07:42:13 51°20.448 2°46.075 20.4864 0.029036 0.165306 46.046728
2009-09-18 07:42:18 51°20.462 2°46.064 20.488 0.028933 0.164717 46.081552
2009-09-18 07:42:23 51°20.475 2°46.052 20.4889 0.028933 0.164717 46.081552
2009-09-18 07:42:28 51°20.488 2°46.041 20.49 0.028933 0.164714 46.081552
2009-09-18 07:42:33 51°20.502 2°46.029 20.4913 0.029036 0.165324 46.011904
2009-09-18 07:42:38 51°20.515 2°46.016 20.4908 0.02955 0.168286 46.081552
2009-09-18 07:42:43 51°20.528 2°46.005 20.4928 0.029036 0.16533 46.081552
2009-09-18 07:42:48 51°20.541 2°45.993 20.4927 0.029139 0.165933 46.046728
2009-09-18 07:42:52 51°20.551 2°45.984 20.4926 0.029139 0.165933 46.046728
2009-09-18 07:42:58 51°20.567 2°45.97 20.4943 0.029036 0.16536 46.151201
2009-09-18 07:43:03 51°20.58 2°45.958 20.4941 0.029447 0.167725 46.011904
2009-09-18 07:43:08 51°20.593 2°45.947 20.4944 0.029036 0.165363 46.081552
2009-09-18 07:43:13 51°20.606 2°45.935 20.4963 0.029447 0.167728 46.081552
2009-09-18 07:43:18 51°20.619 2°45.924 20.4955 0.029447 0.167728 46.081552
2009-09-18 07:43:23 51°20.632 2°45.912 20.4976 0.02955 0.168332 46.081552
2009-09-18 07:43:28 51°20.645 2°45.9 20.4992 0.029036 0.165378 46.116376
2009-09-18 07:43:33 51°20.659 2°45.889 20.5008 0.028933 0.164768 46.151201
2009-09-18 07:43:38 51°20.672 2°45.877 20.5012 0.02955 0.168326 46.081552
2009-09-18 07:43:43 51°20.685 2°45.866 20.5021 0.029036 0.165351 46.081552
2009-09-18 07:43:48 51°20.698 2°45.853 20.5031 0.029036 0.165351 46.081552
2009-09-18 07:43:53 51°20.711 2°45.842 20.5027 0.029653 0.168903 46.151201
2009-09-18 07:43:58 51°20.725 2°45.83 20.5042 0.029242 0.166519 46.046728
2009-09-18 07:44:04 51°20.74 2°45.816 20.5042 0.029036 0.165345 46.151201
2009-09-18 07:44:09 51°20.754 2°45.804 20.5059 0.028933 0.164762 46.116376
2009-09-18 07:44:12 51°20.761 2°45.797 20.506 0.029036 0.165369 46.151201
2009-09-18 07:44:18 51°20.777 2°45.783 20.5072 0.029036 0.165393 46.116376
2009-09-18 07:44:24 51°20.793 2°45.769 20.5077 0.029036 0.165393 46.116376
2009-09-18 07:44:28 51°20.804 2°45.76 20.5089 0.029036 0.165393 46.116376
2009-09-18 07:44:33 51°20.817 2°45.748 20.51 0.028933 0.164801 46.186025
2009-09-18 07:44:37 51°20.828 2°45.739 20.5107 0.029242 0.166583 46.116376
2009-09-18 07:44:43 51°20.844 2°45.725 20.5106 0.029242 0.166574 46.220849
2009-09-18 07:44:48 51°20.857 2°45.713 20.5121 0.028933 0.164792 46.081552
2009-09-18 07:44:53 51°20.87 2°45.702 20.5117 0.028933 0.164792 46.081552
2009-09-18 07:44:58 51°20.883 2°45.691 20.5129 0.030374 0.173115 46.499441
2009-09-18 07:45:03 51°20.896 2°45.679 20.5139 0.029756 0.169579 46.325321
2009-09-18 07:45:08 51°20.91 2°45.668 20.5153 0.029447 0.167804 45.907432
2009-09-18 07:45:13 51°20.923 2°45.656 20.5149 0.02955 0.168396 45.872608
2009-09-18 07:45:17 51°20.934 2°45.647 20.5164 0.02955 0.168396 45.872608
2009-09-18 07:45:24 51°20.952 2°45.63 20.517 0.029036 0.165405 45.942256
2009-09-18 07:45:29 51°20.965 2°45.618 20.5182 0.029345 0.167169 45.907432
2009-09-18 07:45:34 51°20.978 2°45.607 20.5186 0.029036 0.165393 45.80296
2009-09-18 07:45:38 51°20.988 2°45.598 20.5194 0.02955 0.168366 45.698488
2009-09-18 07:45:43 51°21.002 2°45.586 20.52 0.029242 0.166598 45.594016
2009-09-18 07:45:49 51°21.017 2°45.572 20.5216 0.029242 0.166592 45.454719
2009-09-18 07:45:54 51°21.03 2°45.56 20.5228 0.029242 0.166592 45.454719
2009-09-18 07:45:58 51°21.041 2°45.55 20.5234 0.029139 0.165991 45.315423
2009-09-18 07:46:03 51°21.054 2°45.538 20.5241 0.029242 0.166595 45.210951
2009-09-18 07:46:08 51°21.067 2°45.526 20.5247 0.029242 0.166601 45.141303
2009-09-18 07:46:13 51°21.081 2°45.515 20.5259 0.029139 0.166006 45.106479
2009-09-18 07:46:18 51°21.094 2°45.503 20.5265 0.029345 0.167178 45.071655
2009-09-18 07:46:23 51°21.107 2°45.491 20.5273 0.029345 0.167178 45.071655
2009-09-18 07:46:28 51°21.119 2°45.48 20.5281 0.029242 0.166586 45.106479
2009-09-18 07:46:33 51°21.132 2°45.467 20.529 0.028933 0.16481 45.106479
2009-09-18 07:46:38 51°21.145 2°45.455 20.5298 0.029036 0.165429 45.106479
2009-09-18 07:46:43 51°21.159 2°45.443 20.5309 0.029139 0.166024 45.176127
2009-09-18 07:46:48 51°21.171 2°45.431 20.5317 0.029139 0.166024 45.176127
2009-09-18 07:46:53 51°21.185 2°45.42 20.5322 0.030991 0.17671 45.141303
2009-09-18 07:46:58 51°21.198 2°45.409 20.5328 0.030477 0.173747 45.245775
2009-09-18 07:47:03 51°21.211 2°45.397 20.5338 0.030168 0.171966 45.350247
2009-09-18 07:47:08 51°21.224 2°45.386 20.5345 0.02955 0.168399 45.350247
2009-09-18 07:47:13 51°21.237 2°45.374 20.5356 0.029345 0.167208 45.419895
2009-09-18 07:47:18 51°21.25 2°45.362 20.5363 0.029345 0.167208 45.419895
2009-09-18 07:47:23 51°21.264 2°45.351 20.5374 0.02955 0.168369 45.524368
2009-09-18 07:47:27 51°21.274 2°45.341 20.538 0.029242 0.166598 45.594016
2009-09-18 07:47:33 51°21.29 2°45.328 20.5393 0.029756 0.169591 45.698488
2009-09-18 07:47:37 51°21.3 2°45.318 20.5404 0.029962 0.170783 45.768136
2009-09-18 07:47:43 51°21.315 2°45.304 20.5414 0.029756 0.169613 45.907432
2009-09-18 07:47:48 51°21.328 2°45.292 20.5417 0.029447 0.167834 46.011904
2009-09-18 07:47:53 51°21.341 2°45.281 20.5424 0.029447 0.167834 46.011904
2009-09-18 07:47:57 51°21.352 2°45.272 20.5436 0.029962 0.170796 46.081552
2009-09-18 07:48:02 51°21.365 2°45.26 20.5448 0.029447 0.167831 46.255673
2009-09-18 07:48:08 51°21.381 2°45.246 20.5453 0.029756 0.1696 46.360145
2009-09-18 07:48:13 51°21.394 2°45.234 20.5465 0.029242 0.166604 46.429793
2009-09-18 07:48:18 51°21.407 2°45.222 20.5477 0.029139 0.166015 46.569089
2009-09-18 07:48:22 51°21.417 2°45.214 20.5485 0.029139 0.166015 46.569089
2009-09-18 07:48:28 51°21.433 2°45.2 20.549 0.029756 0.169585 46.673561
2009-09-18 07:48:33 51°21.446 2°45.189 20.5497 0.029139 0.166033 46.812858
2009-09-18 07:48:38 51°21.459 2°45.177 20.5508 0.029139 0.166018 46.847682
2009-09-18 07:48:43 51°21.472 2°45.166 20.5521 0.029139 0.166018 46.986978
2009-09-18 07:48:48 51°21.485 2°45.154 20.5528 0.029139 0.166018 46.986978
2009-09-18 07:48:53 51°21.498 2°45.143 20.5533 0.029036 0.165444 47.09145
2009-09-18 07:48:58 51°21.512 2°45.132 20.5549 0.029242 0.16664 47.126274
2009-09-18 07:49:03 51°21.525 2°45.12 20.5554 0.029036 0.165438 47.300394
2009-09-18 07:49:07 51°21.535 2°45.111 20.5563 0.029139 0.166048 47.335218
2009-09-18 07:49:13 51°21.55 2°45.097 20.5566 0.029036 0.165459 47.439691
2009-09-18 07:49:18 51°21.563 2°45.086 20.5584 0.028933 0.164864 47.509339
2009-09-18 07:49:23 51°21.576 2°45.075 20.5579 0.028933 0.164864 47.509339
2009-09-18 07:49:28 51°21.589 2°45.064 20.5588 0.029653 0.169035 47.648635
2009-09-18 07:49:33 51°21.602 2°45.053 20.5604 0.029139 0.166078 47.648635
2009-09-18 07:49:38 51°21.615 2°45.041 20.5618 0.029345 0.167251 47.753107
2009-09-18 07:49:43 51°21.629 2°45.031 20.5619 0.029345 0.167269 47.822755
2009-09-18 07:49:48 51°21.642 2°45.02 20.5628 0.029447 0.167877 47.857579
2009-09-18 07:49:53 51°21.655 2°45.009 20.5611 0.029447 0.167877 47.857579
2009-09-18 07:49:57 51°21.665 2°44.999 20.5644 0.029242 0.166695 47.996875
2009-09-18 07:50:03 51°21.681 2°44.986 20.5652 0.030065 0.171433 47.996875
2009-09-18 07:50:08 51°21.694 2°44.975 20.5659 0.029242 0.166683 48.101348
2009-09-18 07:50:13 51°21.707 2°44.963 20.5688 0.029859 0.170246 48.170996
2009-09-18 07:50:18 51°21.72 2°44.952 20.569 0.029859 0.170246 48.170996
2009-09-18 07:50:22 51°21.731 2°44.943 20.5688 0.029139 0.166105 48.20582
2009-09-18 07:50:27 51°21.743 2°44.932 20.5692 0.029345 0.167251 48.310292
2009-09-18 07:50:33 51°21.759 2°44.918 20.5697 0.029139 0.166057 48.345116
2009-09-18 07:50:38 51°21.772 2°44.907 20.5695 0.029242 0.166664 48.37994
2009-09-18 07:50:42 51°21.782 2°44.898 20.5724 0.029345 0.167257 48.449588
2009-09-18 07:50:47 51°21.795 2°44.887 20.5733 0.029345 0.167257 48.449588
2009-09-18 07:50:53 51°21.81 2°44.873 20.5738 0.029345 0.167269 48.55406
2009-09-18 07:50:58 51°21.824 2°44.862 20.5731 0.029036 0.165483 48.588884
2009-09-18 07:51:02 51°21.834 2°44.853 20.5763 0.029345 0.167233 48.623708
2009-09-18 07:51:08 51°21.849 2°44.839 20.5732 0.029345 0.167245 48.658532
2009-09-18 07:51:13 51°21.861 2°44.827 20.5769 0.030168 0.172029 48.763005
2009-09-18 07:51:18 51°21.875 2°44.817 20.5762 0.029653 0.169072 48.728181
2009-09-18 07:51:23 51°21.887 2°44.804 20.5776 0.029653 0.169072 48.728181
2009-09-18 07:51:28 51°21.899 2°44.793 20.5781 0.02955 0.16847 48.832653
2009-09-18 07:51:33 51°21.912 2°44.782 20.5786 0.02955 0.168479 48.867477
2009-09-18 07:51:38 51°21.925 2°44.771 20.5787 0.029756 0.169671 48.937125
2009-09-18 07:51:43 51°21.938 2°44.76 20.5808 0.029345 0.167324 49.006773
2009-09-18 07:51:48 51°21.95 2°44.748 20.5793 0.030682 0.175033 49.006773
2009-09-18 07:51:53 51°21.963 2°44.736 20.5815 0.030682 0.175033 49.006773
2009-09-18 07:51:58 51°21.975 2°44.725 20.5822 0.030374 0.173257 49.041597
2009-09-18 07:52:03 51°21.988 2°44.713 20.5809 0.029653 0.169075 49.111245
2009-09-18 07:52:08 51°22 2°44.702 20.5835 0.029756 0.169653 49.250541
2009-09-18 07:52:13 51°22.013 2°44.691 20.5838 0.029139 0.166102 49.389838
2009-09-18 07:52:18 51°22.026 2°44.679 20.5842 0.029139 0.166102 49.389838
2009-09-18 07:52:23 51°22.038 2°44.668 20.585 0.029242 0.166716 49.424662
2009-09-18 07:52:28 51°22.051 2°44.657 20.5861 0.029345 0.167324 49.389838
2009-09-18 07:52:33 51°22.064 2°44.646 20.5873 0.029036 0.165528 49.459486
2009-09-18 07:52:37 51°22.074 2°44.637 20.5876 0.029139 0.166129 49.49431
2009-09-18 07:52:42 51°22.087 2°44.625 20.589 0.029036 0.16554 49.49431
2009-09-18 07:52:48 51°22.103 2°44.612 20.5878 0.029345 0.167306 49.529134
2009-09-18 07:52:53 51°22.116 2°44.6 20.5906 0.029345 0.167306 49.529134
2009-09-18 07:52:58 51°22.128 2°44.588 20.592 0.029345 0.16729 49.529134
2009-09-18 07:53:02 51°22.138 2°44.579 20.5931 0.029345 0.167296 49.598782
2009-09-18 07:53:08 51°22.154 2°44.565 20.594 0.02955 0.168491 49.598782
2009-09-18 07:53:13 51°22.167 2°44.554 20.5941 0.029345 0.167306 49.598782
2009-09-18 07:53:18 51°22.18 2°44.543 20.5939 0.029447 0.167889 49.66843
2009-09-18 07:53:23 51°22.193 2°44.531 20.5945 0.029447 0.167889 49.66843
2009-09-18 07:53:28 51°22.206 2°44.52 20.5957 0.029036 0.165519 49.66843
2009-09-18 07:53:33 51°22.218 2°44.508 20.5976 0.02955 0.168482 49.633606
2009-09-18 07:53:38 51°22.231 2°44.497 20.5977 0.029139 0.166126 49.738078
2009-09-18 07:53:43 51°22.244 2°44.486 20.5992 0.029139 0.16616 49.738078
2009-09-18 07:53:48 51°22.257 2°44.475 20.5991 0.029139 0.16616 49.738078
2009-09-18 07:53:53 51°22.27 2°44.463 20.6006 0.029139 0.166169 49.738078
2009-09-18 07:53:58 51°22.283 2°44.452 20.6 0.029139 0.16616 49.807726
2009-09-18 07:54:03 51°22.296 2°44.441 20.6017 0.029036 0.165573 49.84255
2009-09-18 07:54:08 51°22.309 2°44.43 20.6015 0.029345 0.167348 49.807726
2009-09-18 07:54:13 51°22.322 2°44.419 20.6019 0.029036 0.165564 49.84255
2009-09-18 07:54:18 51°22.335 2°44.407 20.6048 0.029036 0.165564 49.84255
2009-09-18 07:54:23 51°22.347 2°44.396 20.6026 0.029036 0.165558 49.877374
2009-09-18 07:54:28 51°22.36 2°44.384 20.6031 0.029036 0.165561 49.912198
2009-09-18 07:54:33 51°22.373 2°44.373 20.6064 0.029139 0.16615 49.877374
2009-09-18 07:54:38 51°22.386 2°44.361 20.6061 0.029756 0.169715 49.912198
2009-09-18 07:54:42 51°22.396 2°44.352 20.6077 0.029345 0.167345 49.912198
2009-09-18 07:54:48 51°22.411 2°44.338 20.608 0.029653 0.16914 49.947022
2009-09-18 07:54:53 51°22.424 2°44.326 20.6067 0.029653 0.16914 49.947022
2009-09-18 07:54:58 51°22.437 2°44.315 20.6093 0.029345 0.167351 50.016671
2009-09-18 07:55:02 51°22.447 2°44.306 20.6109 0.029345 0.167345 49.947022
2009-09-18 07:55:08 51°22.462 2°44.292 20.6114 0.029036 0.165582 50.051495
2009-09-18 07:55:13 51°22.474 2°44.28 20.6116 0.02955 0.168553 49.981846
2009-09-18 07:55:18 51°22.487 2°44.27 20.6138 0.029345 0.167363 50.016671
2009-09-18 07:55:22 51°22.497 2°44.259 20.6143 0.029345 0.167363 50.016671
2009-09-18 07:55:28 51°22.512 2°44.246 20.6143 0.02955 0.168534 50.051495
2009-09-18 07:55:33 51°22.525 2°44.234 20.6143 0.029345 0.167351 50.051495
2009-09-18 07:55:38 51°22.537 2°44.223 20.6153 0.029036 0.165585 50.051495
2009-09-18 07:55:43 51°22.55 2°44.211 20.6143 0.029859 0.170339 50.016671
2009-09-18 07:55:48 51°22.563 2°44.2 20.6158 0.029859 0.170339 50.016671
2009-09-18 07:55:53 51°22.576 2°44.188 20.6175 0.029139 0.166181 50.121143
2009-09-18 07:55:58 51°22.589 2°44.177 20.619 0.029139 0.166178 50.086319
2009-09-18 07:56:03 51°22.602 2°44.165 20.6195 0.029447 0.167972 50.051495
2009-09-18 07:56:08 51°22.614 2°44.154 20.6205 0.029036 0.165591 50.121143
2009-09-18 07:56:13 51°22.627 2°44.142 20.6222 0.029345 0.167369 50.121143
2009-09-18 07:56:18 51°22.64 2°44.132 20.6225 0.029345 0.167379 50.086319
2009-09-18 07:56:23 51°22.653 2°44.121 20.6229 0.029345 0.167379 50.086319
2009-09-18 07:56:28 51°22.666 2°44.109 20.6232 0.029139 0.166166 48.728181
2009-09-18 07:56:33 51°22.679 2°44.099 20.6258 0.029036 0.16557 49.285365
2009-09-18 07:56:38 51°22.691 2°44.087 20.6259 0.029345 0.16736 49.563958
2009-09-18 07:56:43 51°22.704 2°44.075 20.6271 0.029139 0.166196 49.66843
2009-09-18 07:56:48 51°22.717 2°44.063 20.6261 0.029036 0.165594 49.703254
2009-09-18 07:56:53 51°22.73 2°44.051 20.6261 0.029036 0.165594 49.703254
2009-09-18 07:56:57 51°22.74 2°44.041 20.6286 0.029653 0.169161 49.738078
2009-09-18 07:57:02 51°22.753 2°44.03 20.6285 0.029447 0.167984 49.772902
2009-09-18 07:57:08 51°22.768 2°44.014 20.6298 0.029345 0.167385 49.738078
2009-09-18 07:57:13 51°22.78 2°44.002 20.6297 0.029653 0.169171 49.738078
2009-09-18 07:57:18 51°22.793 2°43.99 20.6306 0.029345 0.167397 49.738078
2009-09-18 07:57:22 51°22.803 2°43.981 20.6332 0.029345 0.167397 49.738078
2009-09-18 07:57:28 51°22.818 2°43.967 20.6344 0.029756 0.169767 49.703254
2009-09-18 07:57:33 51°22.831 2°43.955 20.6328 0.02955 0.168577 49.772902
2009-09-18 07:57:38 51°22.843 2°43.944 20.6358 0.029139 0.166178 49.459486
2009-09-18 07:57:42 51°22.854 2°43.934 20.6352 0.029653 0.169143 49.563958
2009-09-18 07:57:48 51°22.869 2°43.92 20.6363 0.029653 0.169143 49.563958
2009-09-18 07:57:53 51°22.882 2°43.908 20.6368 0.029139 0.166199 49.598782